<- Previous Day | Today | Next Day ->

All Data for 18 May 2022

 

Time A - D Temp A - D Dew Point A - D Humidity A - D Pressure A - D Wind A - D Wind Dir Gust A - D Rain Rate A - D Rain Total
00:00 13.0 11.9 93 1016.1 15.2 S 18.3 0.0 0.0
00:01 13.0 11.9 93 1016.1 15.2 SW 18.3 0.0 0.0
00:02 13.0 11.9 93 1015.8 11.4 SW 18.3 0.0 0.0
00:03 13.0 11.9 93 1015.9 11.4 S 15.2 0.0 0.0
00:04 13.0 11.9 93 1015.9 11.4 S 15.2 0.0 0.0
00:05 12.9 11.8 93 1015.9 10.7 SW 15.2 0.0 0.0
00:06 12.9 11.8 93 1016.0 13.0 SW 15.2 0.0 0.0
00:08 12.9 11.8 93 1016.1 9.8 NW 15.9 0.0 0.0
00:09 12.9 11.8 93 1016.3 9.8 S 15.9 0.0 0.0
00:10 12.8 11.7 93 1016.3 13.0 SW 15.9 0.0 0.0
00:11 12.8 11.7 93 1016.2 13.0 SW 15.9 0.0 0.0
00:12 12.8 11.7 93 1016.1 12.1 SW 15.9 0.0 0.0
00:13 12.8 11.7 93 1016.1 12.1 SW 15.9 0.0 0.0
00:14 12.7 11.6 93 1016.3 13.6 S 15.9 0.0 0.0
00:15 12.7 11.6 93 1016.1 13.0 SW 15.9 0.0 0.0
00:16 12.7 11.6 93 1016.4 11.4 S 15.9 0.0 0.0
00:17 12.7 11.6 93 1016.1 11.4 WSW 15.9 0.0 0.0
00:18 12.7 11.6 93 1016.3 11.4 S 13.6 0.0 0.0
00:19 12.7 11.6 93 1016.3 11.4 S 13.6 0.0 0.0
00:20 12.7 11.6 93 1016.3 10.7 S 13.6 0.0 0.0
00:22 12.7 11.6 93 1016.3 13.6 SW 13.6 0.0 0.0
00:23 12.7 11.6 93 1016.3 13.6 SW 13.6 0.0 0.0
00:24 12.7 11.6 93 1016.3 8.3 SW 13.6 0.0 0.0
00:25 12.7 11.6 93 1016.4 11.4 S 13.6 0.0 0.0
00:26 12.6 11.5 93 1016.4 10.7 S 13.6 0.0 0.0
00:27 12.6 11.5 93 1016.4 9.2 SW 13.6 0.0 0.0
00:28 12.6 11.5 93 1016.4 12.1 S 13.6 0.0 0.0
00:29 12.6 11.5 93 1016.4 12.1 W 13.6 0.0 0.0
00:30 12.6 11.5 93 1016.3 11.4 SSW 13.6 0.0 0.0
00:31 12.6 11.5 93 1016.4 8.3 SW 13.6 0.0 0.0
00:32 12.6 11.5 93 1016.2 12.1 SSW 13.6 0.0 0.0
00:33 12.6 11.5 93 1016.5 10.7 SW 13.6 0.0 0.0
00:34 12.6 11.5 93 1016.5 9.2 S 12.1 0.0 0.0
00:36 12.5 11.4 93 1016.6 9.2 S 12.1 0.0 0.0
00:37 12.5 11.4 93 1016.4 11.4 SW 12.1 0.0 0.0
00:38 12.5 11.4 93 1016.5 9.2 S 12.1 0.0 0.0
00:39 12.5 11.4 93 1016.3 9.2 S 12.1 0.0 0.0
00:40 12.5 11.4 93 1016.4 7.6 S 12.1 0.0 0.0
00:41 12.5 11.4 93 1016.4 7.6 S 12.1 0.0 0.0
00:42 12.4 11.9 97 1016.4 9.8 S 12.1 0.0 0.0
00:43 12.4 11.8 96 1016.4 8.3 SSE 11.4 0.0 0.0
00:44 12.4 11.8 96 1016.6 9.2 S 11.4 0.0 0.0
00:45 12.4 11.8 96 1016.3 10.7 SW 11.4 0.0 0.0
00:46 12.3 11.7 96 1016.4 9.2 S 11.4 0.0 0.0
00:47 12.3 11.7 96 1016.3 7.6 SW 11.4 0.0 0.0
00:48 12.3 11.7 96 1016.6 9.8 S 10.7 0.0 0.0
00:50 12.3 11.7 96 1016.4 9.2 S 10.7 0.0 0.0
00:51 12.3 11.7 96 1016.4 9.8 S 10.7 0.0 0.0
00:52 12.3 11.7 96 1016.5 9.8 S 10.7 0.0 0.0
00:53 12.3 11.7 96 1016.6 12.1 S 12.1 0.0 0.0
00:54 12.3 11.7 96 1016.6 9.2 S 12.1 0.0 0.0
00:55 12.3 11.7 96 1016.7 10.7 S 12.1 0.0 0.0
00:56 12.3 11.7 96 1016.6 10.7 S 12.1 0.0 0.0
00:57 12.3 11.7 96 1016.4 10.7 SSE 12.1 0.0 0.0
00:58 12.3 11.7 96 1016.6 9.8 SW 12.1 0.0 0.0
00:59 12.3 11.7 96 1016.6 12.1 S 12.1 0.0 0.0
01:00 12.3 11.7 96 1016.8 10.7 SSW 12.1 0.0 0.0
01:01 12.3 11.7 96 1016.6 10.7 SSW 12.1 0.0 0.0
01:02 12.3 11.7 96 1016.7 10.7 SSW 12.1 0.0 0.0
01:04 12.3 11.7 96 1016.5 10.7 SSW 12.1 0.0 0.0
01:05 12.3 11.7 96 1016.5 10.7 SSW 12.1 0.0 0.0
01:06 12.3 11.7 96 1016.6 10.7 SSW 12.1 0.0 0.0
01:07 12.3 11.7 96 1016.6 10.7 S 12.1 0.0 0.0
01:08 12.3 11.8 97 1016.9 10.7 SSE 12.1 0.0 0.0
01:09 12.3 11.8 97 1016.9 10.7 SSE 12.1 0.0 0.0
01:10 12.3 11.8 97 1016.8 13.6 S 13.6 0.0 0.0
01:11 12.3 11.8 97 1016.8 12.1 S 13.6 0.0 0.0
01:12 12.3 11.8 97 1016.8 12.1 S 13.6 0.0 0.0
01:13 12.3 11.8 97 1016.7 11.4 SW 13.6 0.0 0.0
01:14 12.3 11.8 97 1016.6 13.0 S 13.6 0.0 0.0
01:15 12.3 11.8 97 1016.5 11.4 SW 13.6 0.0 0.0
01:16 12.3 11.8 97 1016.8 11.4 SW 13.6 0.0 0.0
01:18 12.4 11.9 97 1016.6 9.8 SE 13.6 0.0 0.0
01:19 12.4 11.9 97 1016.6 9.8 S 13.6 0.0 0.0
01:20 12.4 11.9 97 1016.4 13.0 SW 13.6 0.0 0.0
01:21 12.4 11.9 97 1016.6 13.0 SW 13.6 0.0 0.0
01:22 12.4 11.9 97 1016.7 9.8 S 13.6 0.0 0.0
01:23 12.4 11.9 97 1016.7 11.4 S 13.6 0.0 0.0
01:24 12.4 11.9 97 1016.7 12.1 S 13.6 0.0 0.0
01:25 12.4 11.9 97 1016.6 11.4 SW 13.6 0.0 0.0
01:26 12.4 11.9 97 1016.8 10.7 SW 13.6 0.0 0.0
01:27 12.4 11.9 97 1016.7 8.3 SW 13.6 0.0 0.0
01:28 12.4 11.9 97 1016.7 9.8 S 13.6 0.0 0.0
01:29 12.4 11.9 97 1016.7 11.4 S 13.6 0.0 0.0
01:30 12.4 11.9 97 1016.6 12.1 S 13.6 0.0 0.0
01:31 12.4 11.9 97 1016.6 13.6 SW 13.6 0.0 0.0
01:33 12.4 11.9 97 1016.8 10.7 S 13.6 0.0 0.0
01:34 12.4 11.9 97 1016.9 9.8 S 13.6 0.0 0.0
01:35 12.4 11.9 97 1016.8 7.6 SW 13.6 0.0 0.0
01:36 12.3 11.8 97 1016.6 10.7 S 13.6 0.0 0.0
01:37 12.3 11.8 97 1016.6 10.7 S 13.6 0.0 0.0
01:38 12.3 11.8 97 1016.8 9.8 SW 13.6 0.0 0.0
01:39 12.3 11.8 97 1016.8 11.4 SW 13.6 0.0 0.0
01:40 12.3 11.8 97 1016.6 10.7 S 13.6 0.0 0.0
01:41 12.3 11.8 97 1016.6 10.7 S 13.6 0.0 0.0
01:42 12.3 11.8 97 1016.9 9.2 S 12.1 0.0 0.0
01:43 12.3 11.8 97 1016.8 10.7 SW 12.1 0.0 0.0
01:44 12.3 11.8 97 1016.6 10.7 S 12.1 0.0 0.0
01:45 12.3 11.8 97 1016.8 9.8 S 12.1 0.0 0.0
01:47 12.2 11.7 97 1016.8 11.4 S 11.4 0.0 0.0
01:48 12.2 11.7 97 1017.1 9.8 S 11.4 0.0 0.0
01:49 12.2 11.7 97 1016.7 8.3 S 11.4 0.0 0.0
01:50 12.2 11.7 97 1016.8 7.6 SW 11.4 0.0 0.0
01:51 12.2 11.7 97 1016.7 9.2 SSW 11.4 0.0 0.0
01:52 12.2 11.7 97 1017.0 9.2 SW 11.4 0.0 0.0
01:53 12.2 11.7 97 1016.9 9.2 SW 11.4 0.0 0.0
01:54 12.1 11.6 97 1016.9 8.3 SW 11.4 0.0 0.0
01:55 12.1 11.6 97 1017.0 6.0 SW 11.4 0.0 0.0
01:56 12.1 11.6 97 1016.9 6.0 SW 11.4 0.0 0.0
01:57 12.1 11.6 97 1016.9 6.0 SW 11.4 0.0 0.0
01:58 12.1 11.6 97 1017.1 6.9 WSW 9.8 0.0 0.0
01:59 12.1 11.6 97 1016.9 7.6 S 9.2 0.0 0.0
02:01 12.0 11.5 97 1016.9 7.6 S 9.8 0.0 0.0
02:03 12.0 11.5 97 1017.1 8.3 S 9.8 0.0 0.0
02:04 12.0 11.5 97 1017.0 8.3 S 9.8 0.0 0.0
02:05 12.0 11.5 97 1017.0 7.6 S 9.8 0.0 0.0
02:06 12.0 11.5 97 1016.9 6.0 S 9.8 0.0 0.0
02:07 12.0 11.5 97 1016.8 6.0 S 9.8 0.0 0.0
02:08 12.0 11.5 97 1017.0 10.7 SW 10.7 0.0 0.0
02:09 12.0 11.5 97 1016.9 8.3 S 10.7 0.0 0.0
02:10 12.0 11.5 97 1017.1 8.3 S 10.7 0.0 0.0
02:11 12.0 11.5 97 1016.9 7.6 S 10.7 0.0 0.0
02:12 12.0 11.5 97 1017.0 6.9 SSW 10.7 0.0 0.0
02:13 12.0 11.5 97 1016.9 11.4 SW 11.4 0.0 0.0
02:14 11.9 11.4 97 1017.0 9.2 SW 11.4 0.0 0.0
02:16 11.9 11.4 97 1017.0 8.3 SE 11.4 0.0 0.0
02:17 11.9 11.4 97 1016.8 9.8 SW 11.4 0.0 0.0
02:18 11.9 11.4 97 1016.9 6.9 S 11.4 0.0 0.0
02:19 11.9 11.4 97 1016.9 6.9 SW 11.4 0.0 0.0
02:20 11.9 11.4 97 1016.8 8.3 SW 11.4 0.0 0.0
02:21 11.9 11.4 97 1016.8 8.3 SW 11.4 0.0 0.0
02:22 11.9 11.4 97 1016.8 9.2 S 11.4 0.0 0.0
02:23 11.9 11.4 97 1017.0 12.1 S 12.1 0.0 0.0
02:24 11.9 11.4 97 1017.0 7.6 SW 12.1 0.0 0.0
02:25 11.9 11.4 97 1016.9 9.2 S 12.1 0.0 0.0
02:26 11.9 11.4 97 1017.0 9.2 S 12.1 0.0 0.0
02:27 11.9 11.4 97 1017.1 9.2 S 12.1 0.0 0.0
02:28 11.9 11.4 97 1016.7 7.6 S 12.1 0.0 0.0
02:30 11.9 11.4 97 1016.9 7.6 S 12.1 0.0 0.0
02:31 11.9 11.4 97 1016.9 9.8 S 12.1 0.0 0.0
02:32 11.9 11.4 97 1016.9 9.8 S 12.1 0.0 0.0
02:33 11.9 11.4 97 1016.9 9.8 S 9.8 0.0 0.0
02:34 11.9 11.4 97 1016.8 6.9 S 9.8 0.0 0.0
02:35 11.9 11.4 97 1016.8 9.2 S 9.8 0.0 0.0
02:36 11.9 11.4 97 1016.9 8.3 S 9.8 0.0 0.0
02:37 11.9 11.4 97 1016.8 8.3 S 9.8 0.0 0.0
02:38 11.9 11.4 97 1016.8 7.6 S 9.8 0.0 0.0
02:39 11.9 11.4 97 1016.9 7.6 S 9.8 0.0 0.0
02:40 11.9 11.4 97 1016.8 9.2 SW 9.8 0.0 0.0
02:41 11.9 11.4 97 1016.8 8.3 S 9.8 0.0 0.0
02:42 11.9 11.4 97 1016.8 6.9 S 9.8 0.0 0.0
02:44 11.9 11.4 97 1016.8 6.9 S 9.2 0.0 0.0
02:45 11.9 11.4 97 1016.7 6.0 SW 9.2 0.0 0.0
02:46 11.9 11.4 97 1016.8 9.2 SW 9.2 0.0 0.0
02:47 11.9 11.4 97 1016.6 9.2 SW 9.2 0.0 0.0
02:48 11.9 11.4 97 1016.9 7.6 SW 9.2 0.0 0.0
02:49 11.9 11.4 97 1016.9 7.6 SW 9.2 0.0 0.0
02:50 11.9 11.4 97 1016.7 6.0 SW 9.2 0.0 0.0
02:51 11.9 11.4 97 1016.7 6.9 SW 9.2 0.0 0.0
02:52 11.9 11.4 97 1016.8 6.9 SW 9.2 0.0 0.0
02:53 11.9 11.4 97 1016.7 9.2 S 9.2 0.0 0.0
02:54 11.9 11.4 97 1016.8 8.3 SW 9.2 0.0 0.0
02:55 12.0 11.5 97 1016.9 6.0 SW 9.2 0.0 0.0
02:56 12.0 11.5 97 1016.6 6.0 SW 9.2 0.0 0.0
02:57 11.9 11.4 97 1016.7 5.4 S 9.2 0.0 0.0
02:59 11.9 11.4 97 1016.7 6.0 SW 9.2 0.0 0.0
03:00 11.9 11.4 97 1016.8 7.6 S 9.2 0.0 0.0
03:01 11.9 11.4 97 1016.7 7.6 S 9.2 0.0 0.0
03:02 11.9 11.4 97 1016.6 7.6 S 9.2 0.0 0.0
03:03 11.9 11.4 97 1016.6 7.6 S 8.3 0.0 0.0
03:04 11.9 11.4 97 1016.7 7.6 S 8.3 0.0 0.0
03:05 11.9 11.4 97 1016.8 7.6 S 7.6 0.0 0.0
03:06 11.9 11.4 97 1016.6 7.6 S 7.6 0.0 0.0
03:07 11.9 11.4 97 1016.9 7.6 S 7.6 0.0 0.0
03:08 11.9 11.4 97 1016.7 7.6 S 7.6 0.0 0.0
03:09 11.8 11.3 97 1016.8 9.2 SW 9.2 0.0 0.0
03:10 11.8 11.3 97 1016.6 5.4 S 9.2 0.0 0.0
03:11 11.8 11.3 97 1016.6 6.0 S 9.2 0.0 0.0
03:13 11.8 11.3 97 1016.8 6.9 S 9.2 0.0 0.0
03:14 11.8 11.3 97 1016.7 6.9 E 9.2 0.0 0.0
03:15 11.8 11.3 97 1016.6 6.9 SE 9.2 0.0 0.0
03:16 11.8 11.3 97 1016.5 7.6 S 9.2 0.0 0.0
03:17 11.8 11.3 97 1016.9 4.5 S 9.2 0.0 0.0
03:18 11.8 11.3 97 1016.5 6.9 SE 9.2 0.0 0.0
03:19 11.9 11.4 97 1016.5 8.3 S 9.2 0.0 0.0
03:20 11.9 11.4 97 1016.7 8.3 S 8.3 0.0 0.0
03:21 11.9 11.4 97 1016.6 8.3 S 8.3 0.0 0.0
03:22 11.9 11.4 97 1016.6 7.6 S 8.3 0.0 0.0
03:23 11.9 11.4 97 1016.7 7.6 SSW 8.3 0.0 0.0
03:24 11.9 11.4 97 1016.9 7.6 S 8.3 0.0 0.0
03:25 11.9 11.4 97 1016.5 8.3 S 8.3 0.0 0.0
03:27 12.0 11.5 97 1016.8 8.3 S 8.3 0.0 0.0
03:28 12.0 11.5 97 1016.9 8.3 S 8.3 0.0 0.0
03:29 12.0 11.5 97 1016.9 8.3 S 8.3 0.0 0.0
03:30 12.0 11.5 97 1016.7 8.3 S 8.3 0.0 0.0
03:31 12.0 11.5 97 1016.7 7.6 S 8.3 0.0 0.0
03:32 12.0 11.5 97 1016.8 8.3 SW 8.3 0.0 0.0
03:33 12.0 11.5 97 1016.7 8.3 S 8.3 0.0 0.0
03:34 12.1 11.6 97 1016.7 6.9 SW 9.2 0.0 0.0
03:35 12.1 11.6 97 1016.8 7.6 S 9.2 0.0 0.0
03:36 12.1 11.6 97 1016.8 9.8 S 9.8 0.0 0.0
03:37 12.1 11.6 97 1016.7 9.2 S 9.8 0.0 0.0
03:38 12.1 11.6 97 1016.5 6.9 WSW 9.8 0.0 0.0
03:39 12.1 11.6 97 1016.7 9.8 SW 9.8 0.0 0.0
03:41 12.1 11.6 97 1016.8 6.0 S 9.8 0.0 0.0
03:42 12.1 11.6 97 1016.7 9.2 NE 9.8 0.0 0.0
03:43 12.0 11.5 97 1016.8 8.3 S 9.8 0.0 0.0
03:44 12.1 11.6 97 1016.5 9.2 SSE 10.7 0.0 0.0
03:45 12.1 11.6 97 1016.5 9.8 S 10.7 0.0 0.0
03:46 12.1 11.6 97 1016.7 9.2 SE 10.7 0.0 0.0
03:47 12.1 11.6 97 1016.7 8.3 S 10.7 0.0 0.0
03:48 12.1 11.6 97 1016.6 9.2 S 10.7 0.0 0.0
03:49 12.1 11.6 97 1016.5 9.2 S 10.7 0.0 0.0
03:50 12.0 11.5 97 1016.6 6.9 S 10.7 0.0 0.0
03:51 12.0 11.5 97 1016.7 6.9 S 10.7 0.0 0.0
03:52 12.0 11.5 97 1016.6 8.3 SE 10.7 0.0 0.0
03:53 12.0 11.5 97 1016.4 9.2 S 10.7 0.0 0.0
03:54 12.0 11.5 97 1016.6 9.2 S 9.8 0.0 0.0
03:56 12.0 11.5 97 1016.7 7.6 WSW 9.8 0.0 0.0
03:57 12.1 11.6 97 1016.7 6.9 S 9.8 0.0 0.0
03:58 12.1 11.6 97 1016.6 9.2 S 9.8 0.0 0.0
03:59 12.1 11.6 97 1016.7 9.2 NE 9.8 0.0 0.0
04:00 12.1 11.6 97 1016.8 7.6 SW 9.2 0.0 0.0
04:01 12.1 11.6 97 1016.9 9.2 S 9.2 0.0 0.0
04:02 12.1 11.6 97 1016.8 8.3 S 9.2 0.0 0.0
04:03 12.1 11.6 97 1016.9 7.6 S 9.2 0.0 0.0
04:04 12.1 11.6 97 1016.9 9.2 S 9.2 0.0 0.0
04:05 12.1 11.6 97 1016.7 8.3 SW 9.2 0.0 0.0
04:06 12.1 11.8 98 1016.6 6.9 S 9.2 0.0 0.0
04:07 12.1 11.8 98 1016.8 10.7 SW 10.7 0.0 0.0
04:08 12.1 11.8 98 1016.8 8.3 S 10.7 0.0 0.0
04:10 12.1 11.8 98 1016.7 9.8 SW 12.1 0.0 0.0
04:11 12.2 11.9 98 1016.8 9.8 S 12.1 0.0 0.0
04:12 12.2 11.9 98 1016.7 9.2 SE 12.1 0.0 0.0
04:13 12.2 11.9 98 1016.8 8.3 S 12.1 0.0 0.0
04:14 12.2 11.9 98 1016.5 10.7 S 12.1 0.0 0.0
04:15 12.2 11.9 98 1016.6 9.2 NE 12.1 0.0 0.0
04:16 12.2 11.9 98 1016.7 9.2 S 12.1 0.0 0.0
04:17 12.2 11.9 98 1016.4 9.8 SSW 12.1 0.0 0.0
04:18 12.2 11.9 98 1017.0 10.7 SW 12.1 0.0 0.0
04:19 12.2 11.9 98 1016.8 8.3 SW 12.1 0.0 0.0
04:20 12.2 11.9 98 1016.7 12.1 S 12.1 0.0 0.0
04:21 12.2 11.9 98 1016.7 9.2 S 12.1 0.0 0.0
04:22 12.2 11.9 98 1017.1 8.3 S 12.1 0.0 0.0
04:24 12.1 11.8 98 1016.8 9.8 NW 12.1 0.0 0.0
04:25 12.1 11.8 98 1016.8 6.0 S 12.1 0.0 0.0
04:26 12.1 11.8 98 1016.6 9.2 SW 12.1 0.0 0.0
04:27 12.1 11.8 98 1016.6 7.6 SSE 12.1 0.0 0.0
04:28 12.1 11.6 97 1016.8 6.9 S 12.1 0.0 0.0
04:29 12.0 11.5 97 1016.5 9.2 S 12.1 0.0 0.0
04:30 12.0 11.5 97 1016.9 9.2 SW 12.1 0.0 0.0
04:31 12.0 11.5 97 1016.8 6.0 S 9.8 0.0 0.0
04:32 12.0 11.5 97 1016.8 6.9 S 9.8 0.0 0.0
04:33 12.0 11.5 97 1016.8 7.6 S 9.8 0.0 0.0
04:34 11.9 11.4 97 1016.5 6.9 SSW 9.8 0.0 0.0
04:35 11.9 11.4 97 1016.9 6.9 S 9.2 0.0 0.0
04:36 11.9 11.4 97 1016.8 9.2 SW 9.8 0.0 0.0
04:38 11.8 11.3 97 1016.6 6.0 S 9.8 0.0 0.0
04:39 11.8 11.3 97 1016.6 8.3 S 9.8 0.0 0.0
04:40 11.8 11.3 97 1016.8 8.3 SE 9.8 0.0 0.0
04:41 11.7 11.2 97 1016.7 7.6 S 9.8 0.0 0.0
04:42 11.7 11.2 97 1016.7 6.9 S 9.8 0.0 0.0
04:43 11.7 11.2 97 1016.9 7.6 S 9.8 0.0 0.0
04:44 11.7 11.2 97 1016.8 7.6 S 9.8 0.0 0.0
04:45 11.7 11.2 97 1016.6 5.4 S 9.8 0.0 0.0
04:46 11.7 11.2 97 1016.7 7.6 S 9.8 0.0 0.0
04:47 11.6 11.1 97 1016.7 6.9 E 9.2 0.0 0.0
04:48 11.6 11.1 97 1016.9 6.0 SW 8.3 0.0 0.0
04:49 11.6 11.1 97 1016.7 6.9 S 8.3 0.0 0.0
04:50 11.6 11.1 97 1016.9 6.9 S 9.2 0.0 0.0
04:52 11.6 11.1 97 1016.6 7.6 S 9.2 0.0 0.0
04:53 11.6 11.1 97 1016.8 9.2 S 9.2 0.0 0.0
04:54 11.6 11.1 97 1016.7 9.2 S 9.2 0.0 0.0
04:55 11.6 11.1 97 1016.8 9.2 S 9.2 0.0 0.0
04:56 11.6 11.1 97 1016.6 8.3 S 9.2 0.0 0.0
04:57 11.6 11.1 97 1016.8 8.3 SE 9.2 0.0 0.0
04:58 11.5 11.0 97 1016.7 6.0 S 9.2 0.0 0.0
04:59 11.5 11.0 97 1016.8 6.0 S 9.2 0.0 0.0
05:00 11.5 11.0 97 1017.0 8.3 S 9.2 0.0 0.0
05:01 11.5 11.0 97 1016.8 8.3 S 9.2 0.0 0.0
05:02 11.5 11.0 97 1016.7 8.3 S 9.2 0.0 0.0
05:03 11.5 11.0 97 1016.8 8.3 S 9.2 0.0 0.0
05:04 11.5 11.0 97 1016.7 8.3 S 9.2 0.0 0.0
05:06 11.5 11.0 97 1016.6 8.3 S 8.3 0.0 0.0
05:07 11.5 11.0 97 1016.6 8.3 S 8.3 0.0 0.0
05:08 11.4 10.9 97 1016.7 6.9 S 8.3 0.0 0.0
05:09 11.4 10.9 97 1016.8 9.2 S 9.2 0.0 0.0
05:10 11.4 10.9 97 1016.7 9.2 S 9.2 0.0 0.0
05:11 11.4 10.9 97 1016.6 6.0 S 9.2 0.0 0.0
05:12 11.4 10.9 97 1016.4 6.0 S 9.2 0.0 0.0
05:13 11.3 10.8 97 1016.9 6.9 SE 9.2 0.0 0.0
05:14 11.3 10.8 97 1016.7 6.0 S 9.2 0.0 0.0
05:15 11.3 10.8 97 1017.0 7.6 S 9.2 0.0 0.0
05:16 11.3 10.8 97 1016.6 7.6 S 9.2 0.0 0.0
05:17 11.3 10.8 97 1016.8 7.6 S 9.2 0.0 0.0
05:18 11.3 10.8 97 1016.9 5.4 S 9.2 0.0 0.0
05:20 11.2 10.7 97 1017.0 6.0 SW 7.6 0.0 0.0
05:21 11.2 10.7 97 1016.8 6.0 S 7.6 0.0 0.0
05:22 11.2 10.7 97 1016.8 5.4 SE 7.6 0.0 0.0
05:23 11.2 10.7 97 1016.9 5.4 SE 7.6 0.0 0.0
05:24 11.2 10.7 97 1016.7 4.5 S 7.6 0.0 0.0
05:25 11.2 10.7 97 1016.7 4.5 S 7.6 0.0 0.0
05:26 11.2 10.7 97 1016.7 4.5 S 7.6 0.0 0.0
05:27 11.2 10.7 97 1016.7 6.0 SW 6.9 0.0 0.0
05:28 11.2 10.7 97 1016.6 5.4 S 6.9 0.0 0.0
05:29 11.2 10.7 97 1016.8 4.5 S 6.9 0.0 0.0
05:30 11.1 10.6 97 1016.6 4.5 S 6.9 0.0 0.0
05:31 11.1 10.6 97 1016.9 4.5 SSE 6.0 0.0 0.0
05:32 11.1 10.6 97 1016.7 5.4 S 6.0 0.0 0.0
05:34 11.1 10.6 97 1016.9 6.0 S 6.0 0.0 0.0
05:35 11.1 10.6 97 1016.7 6.0 S 6.0 0.0 0.0
05:36 11.1 10.6 97 1016.6 6.0 S 6.0 0.0 0.0
05:37 11.1 10.6 97 1016.7 6.0 S 6.0 0.0 0.0
05:38 11.1 10.6 97 1016.6 6.9 S 6.9 0.0 0.0
05:39 11.1 10.6 97 1016.5 6.9 SE 6.9 0.0 0.0
05:40 11.1 10.6 97 1016.6 6.0 S 6.9 0.0 0.0
05:41 11.1 10.6 97 1016.6 6.0 SSE 6.9 0.0 0.0
05:42 11.1 10.6 97 1016.6 6.9 S 6.9 0.0 0.0
05:43 11.1 10.6 97 1016.8 6.9 S 6.9 0.0 0.0
05:44 11.2 10.7 97 1016.6 6.0 S 6.9 0.0 0.0
05:45 11.2 10.7 97 1016.8 8.3 S 8.3 0.0 0.0
05:46 11.2 10.7 97 1016.7 6.9 SSE 8.3 0.0 0.0
05:47 11.2 10.7 97 1016.6 6.9 NW 8.3 0.0 0.0
05:49 11.2 10.7 97 1016.7 6.9 S 8.3 0.0 0.0
05:50 11.2 10.7 97 1016.8 7.6 S 8.3 0.0 0.0
05:51 11.2 10.7 97 1016.9 4.5 S 8.3 0.0 0.0
05:52 11.2 10.7 97 1016.6 6.0 SE 8.3 0.0 0.0
05:53 11.2 10.7 97 1016.7 5.4 S 8.3 0.0 0.0
05:54 11.2 10.7 97 1016.8 5.4 S 8.3 0.0 0.0
05:55 11.2 10.7 97 1016.8 5.4 SSE 8.3 0.0 0.0
05:56 11.2 10.7 97 1016.6 6.0 SE 7.6 0.0 0.0
05:57 11.2 10.7 97 1016.9 5.4 S 7.6 0.0 0.0
05:58 11.2 10.7 97 1016.8 6.0 S 7.6 0.0 0.0
05:59 11.3 10.8 97 1017.0 6.0 SE 7.6 0.0 0.0
06:00 11.3 10.8 97 1016.7 5.4 SE 7.6 0.0 0.0
06:01 11.3 10.8 97 1016.7 5.4 SSE 6.0 0.0 0.0
06:02 11.3 10.8 97 1016.9 3.8 S 6.0 0.0 0.0
06:04 11.3 10.8 97 1016.8 5.4 SSE 6.0 0.0 0.0
06:05 11.3 10.8 97 1016.7 5.4 S 6.0 0.0 0.0
06:06 11.3 10.8 97 1016.9 5.4 S 6.0 0.0 0.0
06:07 11.3 10.8 97 1017.1 4.5 S 6.0 0.0 0.0
06:08 11.3 10.8 97 1017.1 5.4 S 6.0 0.0 0.0
06:09 11.3 10.8 97 1017.1 5.4 S 6.0 0.0 0.0
06:10 11.3 10.8 97 1017.0 4.5 SE 6.0 0.0 0.0
06:11 11.3 10.8 97 1017.1 6.0 SE 6.0 0.0 0.0
06:12 11.3 10.8 97 1017.0 6.0 S 6.0 0.0 0.0
06:13 11.3 10.8 97 1016.9 6.0 SE 6.0 0.0 0.0
06:14 11.4 10.9 97 1017.0 9.8 S 9.8 0.0 0.0
06:15 11.4 10.9 97 1017.0 7.6 S 9.8 0.0 0.0
06:16 11.4 10.9 97 1017.0 8.3 S 9.8 0.0 0.0
06:17 11.5 11.0 97 1017.0 8.3 SE 9.8 0.0 0.0
06:18 11.5 11.0 97 1017.0 7.6 SE 9.8 0.0 0.0
06:20 11.6 11.1 97 1017.1 9.2 SW 9.8 0.0 0.0
06:21 11.7 11.2 97 1016.9 9.2 S 9.8 0.0 0.0
06:22 11.7 11.2 97 1017.1 6.0 SE 9.8 0.0 0.0
06:23 11.7 11.4 98 1017.2 9.2 S 9.8 0.0 0.0
06:24 11.8 11.5 98 1017.0 7.6 S 9.8 0.0 0.0
06:25 11.8 11.5 98 1017.0 7.6 S 9.2 0.0 0.0
06:26 11.9 11.6 98 1017.2 7.6 S 9.2 0.0 0.0
06:27 11.9 11.6 98 1017.2 8.3 S 9.2 0.0 0.0
06:28 11.9 11.6 98 1017.3 8.3 SE 9.2 0.0 0.0
06:29 12.0 11.7 98 1017.1 8.3 S 9.2 0.0 0.0
06:30 12.1 11.8 98 1017.0 12.1 S 12.1 0.0 0.0
06:31 12.1 11.8 98 1017.0 12.1 SW 12.1 0.0 0.0
06:32 12.1 11.8 98 1017.0 8.3 S 12.1 0.0 0.0
06:33 12.2 11.9 98 1017.2 10.7 SE 12.1 0.0 0.0
06:35 12.2 11.9 98 1017.0 9.8 SW 12.1 0.0 0.0
06:36 12.3 12.0 98 1017.2 6.9 S 12.1 0.0 0.0
06:37 12.3 12.0 98 1017.1 9.8 S 12.1 0.0 0.0
06:38 12.3 12.0 98 1017.1 9.8 SW 12.1 0.0 0.0
06:39 12.3 12.0 98 1017.3 12.1 S 12.1 0.0 0.0
06:40 12.3 12.0 98 1017.4 9.2 S 12.1 0.0 0.0
06:41 12.3 12.0 98 1017.3 9.8 S 12.1 0.0 0.0
06:42 12.4 12.1 98 1017.1 6.9 S 12.1 0.0 0.0
06:43 12.4 12.1 98 1017.1 6.0 S 12.1 0.0 0.0
06:44 12.4 12.1 98 1017.3 8.3 SSE 12.1 0.0 0.0
06:45 12.4 12.1 98 1017.2 6.9 S 12.1 0.0 0.0
06:46 12.4 12.1 98 1017.4 6.9 S 12.1 0.0 0.0
06:47 12.5 11.6 94 1017.1 6.9 S 12.1 0.0 0.0
06:49 12.5 11.6 94 1017.1 7.6 SW 9.8 0.0 0.0
06:50 12.5 11.6 94 1017.3 12.1 S 12.1 0.0 0.0
06:51 12.5 11.6 94 1017.2 11.4 S 12.1 0.0 0.0
06:52 12.5 11.6 94 1017.2 7.6 S 12.1 0.0 0.0
06:53 12.5 11.6 94 1017.1 12.1 S 12.1 0.0 0.0
06:54 12.5 11.6 94 1017.3 11.4 S 12.1 0.0 0.0
06:55 12.5 11.6 94 1017.3 11.4 S 12.1 0.0 0.0
06:56 12.6 11.7 94 1017.3 9.2 SE 12.1 0.0 0.0
06:57 12.6 11.7 94 1017.2 9.2 S 12.1 0.0 0.0
06:58 12.6 11.7 94 1017.4 6.9 S 12.1 0.0 0.0
06:59 12.6 11.7 94 1017.3 6.9 S 12.1 0.0 0.0
07:00 12.6 11.7 94 1017.2 6.0 SW 12.1 0.0 0.0
07:01 12.6 11.7 94 1017.3 6.0 SW 12.1 0.0 0.0
07:02 12.6 11.7 94 1017.3 6.0 SW 12.1 0.0 0.0
07:03 12.6 11.7 94 1017.6 6.0 SW 12.1 0.0 0.0
07:05 12.6 11.7 94 1017.5 9.8 S 9.8 0.0 0.0
07:06 12.6 11.7 94 1017.5 8.3 S 9.8 0.0 0.0
07:07 12.6 11.7 94 1017.3 8.3 S 9.8 0.0 0.0
07:08 12.6 11.7 94 1017.3 9.2 E 9.8 0.0 0.0
07:09 12.6 11.7 94 1017.3 6.9 SSW 9.8 0.0 0.0
07:10 12.6 11.7 94 1017.1 9.8 SE 9.8 0.0 0.0
07:11 12.6 11.7 94 1017.2 6.0 SE 9.8 0.0 0.0
07:12 12.6 11.8 95 1017.1 6.9 S 9.8 0.0 0.0
07:13 12.6 11.8 95 1017.4 6.9 S 9.8 0.0 0.0
07:14 12.7 11.9 95 1017.3 9.2 S 9.8 0.0 0.0
07:15 12.7 11.9 95 1017.3 7.6 SSE 9.8 0.0 0.0
07:16 12.7 11.9 95 1017.2 10.7 S 10.7 0.0 0.0
07:17 12.7 11.9 95 1017.2 6.0 SW 10.7 0.0 0.0
07:18 12.7 11.9 95 1017.4 8.3 S 10.7 0.0 0.0
07:20 12.7 11.9 95 1017.3 8.3 S 10.7 0.0 0.0
07:21 12.7 11.9 95 1017.3 9.8 S 10.7 0.0 0.0
07:22 12.7 11.9 95 1017.3 9.8 NE 10.7 0.0 0.0
07:23 12.7 11.9 95 1017.3 8.3 S 10.7 0.0 0.0
07:24 12.7 11.9 95 1017.4 10.7 SE 13.0 0.0 0.0
07:25 12.7 11.9 95 1017.2 7.6 S 13.0 0.0 0.0
07:26 12.7 11.9 95 1017.2 9.2 SE 13.0 0.0 0.0
07:27 12.7 11.9 95 1017.2 9.2 SE 13.0 0.0 0.0
07:28 12.7 11.9 95 1017.1 6.0 SE 13.0 0.0 0.0
07:29 12.7 11.9 95 1017.4 9.8 S 13.0 0.0 0.0
07:30 12.7 11.9 95 1017.2 10.7 S 13.0 0.0 0.0
07:31 12.7 11.9 95 1017.2 10.7 WSW 13.0 0.0 0.0
07:32 12.7 11.9 95 1017.4 10.7 S 13.0 0.0 0.0
07:33 12.7 11.9 95 1017.3 9.8 SSE 13.0 0.0 0.0
07:34 12.7 11.9 95 1017.3 10.7 S 13.0 0.0 0.0
07:35 12.7 11.9 95 1017.3 10.7 S 10.7 0.0 0.0
07:37 12.7 11.9 95 1017.4 9.2 S 11.4 0.0 0.0
07:38 12.7 11.9 95 1017.3 9.2 S 11.4 0.0 0.0
07:39 12.7 11.9 95 1017.4 13.0 S 13.0 0.0 0.0
07:40 12.8 12.0 95 1017.3 11.4 S 13.0 0.0 0.0
07:41 12.8 12.0 95 1017.5 12.1 SE 13.0 0.0 0.0
07:42 12.7 11.9 95 1017.6 14.5 S 14.5 0.0 0.0
07:43 12.7 11.9 95 1017.6 13.0 SW 14.5 0.0 0.0
07:44 12.7 11.9 95 1017.5 9.8 SE 14.5 0.0 0.0
07:45 12.7 11.9 95 1017.6 9.8 S 14.5 0.0 0.0
07:46 12.7 11.9 95 1017.6 9.8 S 14.5 0.0 0.0
07:47 12.7 11.9 95 1017.6 12.1 SE 14.5 0.0 0.0
07:48 12.7 11.9 95 1017.4 9.8 S 14.5 0.0 0.0
07:49 12.7 11.9 95 1017.6 11.4 SE 14.5 0.0 0.0
07:50 12.7 11.9 95 1017.5 11.4 S 14.5 0.0 0.0
07:52 12.8 12.0 95 1017.8 16.8 S 16.8 0.0 0.0
07:53 12.8 12.0 95 1017.7 16.8 S 16.8 0.0 0.0
07:54 12.9 12.1 95 1017.7 12.1 SW 16.8 0.0 0.0
07:55 12.9 12.1 95 1017.6 13.0 SE 16.8 0.0 0.0
07:56 12.9 12.1 95 1017.6 15.2 S 16.8 0.0 0.0
07:57 12.9 12.1 95 1017.6 15.2 S 16.8 0.0 0.0
07:58 12.9 12.1 95 1017.6 9.8 SE 16.8 0.0 0.0
07:59 12.9 12.1 95 1017.6 11.4 SE 16.8 0.0 0.0
08:00 12.9 12.1 95 1017.6 11.4 S 16.8 0.0 0.0
08:01 12.9 12.1 95 1017.5 11.4 S 16.8 0.0 0.0
08:02 12.9 12.1 95 1017.5 11.4 S 16.8 0.0 0.0
08:03 12.9 12.1 95 1017.3 11.4 S 16.8 0.0 0.0
08:04 12.9 12.1 95 1017.5 11.4 S 15.2 0.0 0.0
08:05 12.9 12.1 95 1017.6 11.4 S 15.2 0.0 0.0
08:06 13.1 12.3 95 1017.5 15.2 S 15.2 0.0 0.0
08:07 13.0 12.2 95 1017.4 15.2 S 15.2 0.0 0.0
08:09 13.0 12.2 95 1017.5 11.4 SSE 15.2 0.0 0.0
08:10 13.0 12.2 95 1017.6 11.4 SSE 15.2 0.0 0.0
08:11 13.0 12.2 95 1017.5 10.7 S 15.2 0.0 0.0
08:12 13.0 12.2 95 1017.5 8.3 SE 15.2 0.0 0.0
08:13 13.0 12.2 95 1017.7 9.2 SE 15.2 0.0 0.0
08:14 13.0 12.2 95 1017.8 9.2 S 15.2 0.0 0.0
08:15 13.0 12.2 95 1017.3 9.2 S 15.2 0.0 0.0
08:16 13.1 12.3 95 1017.7 8.3 S 15.2 0.0 0.0
08:17 13.1 12.3 95 1017.7 8.3 S 15.2 0.0 0.0
08:18 13.1 12.3 95 1017.5 10.7 S 11.4 0.0 0.0
08:19 13.1 12.3 95 1017.5 8.3 S 11.4 0.0 0.0
08:20 13.1 12.3 95 1017.6 8.3 NW 11.4 0.0 0.0
08:21 13.1 12.3 95 1017.5 13.0 SE 13.0 0.0 0.0
08:22 13.1 12.3 95 1017.6 9.2 S 13.0 0.0 0.0
08:24 13.1 12.3 95 1017.5 8.3 S 13.0 0.0 0.0
08:25 13.1 12.3 95 1017.5 8.3 S 13.0 0.0 0.0
08:26 13.1 12.3 95 1017.7 9.2 SE 13.0 0.0 0.0
08:27 13.1 12.3 95 1017.7 9.8 SSE 13.0 0.0 0.0
08:28 13.1 12.3 95 1017.7 9.8 S 13.0 0.0 0.0
08:29 13.1 12.3 95 1017.7 12.1 S 13.0 0.0 0.0
08:30 13.1 12.3 95 1017.7 12.1 S 13.0 0.0 0.0
08:31 13.1 12.3 95 1017.6 11.4 S 13.0 0.0 0.0
08:32 13.1 12.3 95 1017.6 11.4 S 12.1 0.0 0.0
08:33 13.1 12.3 95 1017.9 7.6 S 12.1 0.0 0.0
08:34 13.1 12.3 95 1017.5 8.3 SW 12.1 0.0 0.0
08:35 13.1 12.3 95 1017.7 7.6 SW 12.1 0.0 0.0
08:36 13.1 12.3 95 1017.5 7.6 S 12.1 0.0 0.0
08:37 13.2 12.4 95 1017.6 8.3 SW 12.1 0.0 0.0
08:38 13.2 12.4 95 1017.6 13.0 S 13.0 0.0 0.0
08:39 13.2 12.4 95 1017.7 13.0 SE 13.0 0.0 0.0
08:41 13.2 12.4 95 1017.5 10.7 S 13.0 0.0 0.0
08:42 13.3 12.5 95 1017.5 6.0 S 13.0 0.0 0.0
08:43 13.3 12.5 95 1017.5 12.1 S 13.0 0.0 0.0
08:44 13.4 12.6 95 1017.5 14.5 SE 14.5 0.0 0.0
08:45 13.4 12.6 95 1017.7 13.6 S 14.5 0.0 0.0
08:46 13.4 12.6 95 1017.8 12.1 SSE 14.5 0.0 0.0
08:47 13.4 12.6 95 1017.5 12.1 SSE 14.5 0.0 0.0
08:48 13.4 12.6 95 1017.6 14.5 SE 14.5 0.0 0.0
08:49 13.4 12.6 95 1017.6 10.7 S 14.5 0.0 0.0
08:50 13.4 12.6 95 1017.5 10.7 SW 14.5 0.0 0.0
08:51 13.5 12.7 95 1017.5 14.5 SW 14.5 0.0 0.0
08:52 13.6 12.8 95 1017.5 10.7 S 14.5 0.0 0.0
08:53 13.6 12.8 95 1017.7 9.2 S 14.5 0.0 0.0
08:54 13.8 13.0 95 1017.4 11.4 SW 14.5 0.0 0.0
08:55 13.9 13.1 95 1017.6 13.6 SE 14.5 0.0 0.0
08:57 14.0 13.2 95 1017.6 15.2 S 15.9 0.0 0.0
08:58 14.0 13.2 95 1017.7 13.0 S 15.9 0.0 0.0
08:59 14.0 13.2 95 1017.5 14.5 S 15.9 0.0 0.0
09:00 14.0 13.2 95 1017.6 14.5 S 15.9 0.0 0.0
09:01 14.0 13.2 95 1017.6 14.5 S 15.9 0.0 0.0
09:02 14.0 13.2 95 1017.5 14.5 S 15.9 0.0 0.0
09:03 14.1 13.3 95 1017.8 15.9 S 15.9 0.0 0.0
09:04 14.1 13.3 95 1017.5 16.8 SE 16.8 0.0 0.0
09:05 14.1 13.2 94 1017.7 16.8 S 16.8 0.0 0.0
09:06 14.0 13.1 94 1017.7 15.2 S 16.8 0.0 0.0
09:07 14.0 13.1 94 1017.5 13.6 S 16.8 0.0 0.0
09:08 14.0 13.1 94 1017.5 16.8 SSE 16.8 0.0 0.0
09:09 13.9 13.0 94 1017.7 14.5 S 16.8 0.0 0.0
09:10 13.9 13.0 94 1017.7 13.6 SE 16.8 0.0 0.0
09:11 13.8 12.7 93 1017.9 13.0 S 16.8 0.0 0.0
09:13 13.8 12.7 93 1017.6 12.1 SE 16.8 0.0 0.0
09:14 13.8 12.7 93 1017.6 11.4 S 16.8 0.0 0.0
09:15 13.8 12.7 93 1017.6 10.7 S 16.8 0.0 0.0
09:16 13.9 12.8 93 1017.5 9.8 S 16.8 0.0 0.0
09:17 13.9 12.6 92 1017.7 14.5 S 16.8 0.0 0.0
09:18 13.9 12.6 92 1017.4 14.5 SE 14.5 0.0 0.0
09:19 13.9 12.6 92 1017.6 13.0 SW 14.5 0.0 0.0
09:20 13.9 12.6 92 1017.5 13.6 S 14.5 0.0 0.0
09:21 13.9 12.6 92 1017.6 13.6 S 14.5 0.0 0.0
09:22 13.9 12.6 92 1017.8 11.4 S 15.9 0.0 0.0
09:23 13.8 12.5 92 1017.6 12.1 S 15.9 0.0 0.0
09:24 13.8 12.5 92 1017.5 15.9 S 15.9 0.0 0.0
09:25 13.8 12.5 92 1017.9 15.9 SE 15.9 0.0 0.0
09:26 13.8 12.4 91 1017.6 13.0 SE 15.9 0.0 0.0
09:27 13.9 12.5 91 1017.7 13.6 SE 15.9 0.0 0.0
09:29 13.9 12.5 91 1017.7 17.4 S 17.4 0.0 0.0
09:30 13.9 12.5 91 1017.5 17.4 S 17.4 0.0 0.0
09:31 13.8 12.4 91 1017.8 14.5 S 17.4 0.0 0.0
09:32 13.8 12.4 91 1017.5 15.2 S 17.4 0.0 0.0
09:33 13.8 12.4 91 1017.6 13.0 S 17.4 0.0 0.0
09:34 13.8 12.4 91 1017.7 14.5 SE 17.4 0.0 0.0
09:35 13.8 12.4 91 1017.6 12.1 S 17.4 0.0 0.0
09:36 13.8 12.2 90 1017.7 12.1 S 17.4 0.0 0.0
09:37 13.8 12.2 90 1017.5 13.6 S 17.4 0.0 0.0
09:38 13.8 12.2 90 1017.8 12.1 S 17.4 0.0 0.0
09:39 13.8 12.2 90 1017.7 13.0 S 17.4 0.0 0.0
09:40 13.8 12.2 90 1017.8 12.1 S 17.4 0.0 0.0
09:41 13.7 12.1 90 1017.6 13.0 S 15.2 0.0 0.0
09:43 13.7 12.1 90 1017.7 16.8 S 16.8 0.0 0.0
09:44 13.7 12.1 90 1017.5 16.8 SW 18.3 0.0 0.0
09:45 13.7 12.1 90 1017.8 16.8 S 18.3 0.0 0.0
09:46 13.7 12.1 90 1017.6 16.8 SW 18.3 0.0 0.0
09:47 13.7 12.1 90 1017.6 16.8 SW 18.3 0.0 0.0
09:48 13.6 12.0 90 1017.7 16.8 S 18.3 0.0 0.0
09:49 13.6 12.0 90 1017.7 16.8 S 18.3 0.0 0.0
09:50 13.6 12.0 90 1017.6 9.8 S 18.3 0.0 0.0
09:51 13.6 12.0 90 1017.5 7.6 S 18.3 0.0 0.0
09:52 13.7 12.1 90 1017.4 11.4 S 18.3 0.0 0.0
09:53 13.7 12.1 90 1017.4 16.8 S 18.3 0.0 0.0
09:54 13.7 12.1 90 1017.5 15.9 S 18.3 0.0 0.0
09:55 13.7 12.1 90 1017.4 15.2 SE 17.4 0.0 0.0
09:56 13.7 12.1 90 1017.3 10.7 SE 17.4 0.0 0.0
09:57 13.7 12.1 90 1017.5 11.4 S 17.4 0.0 0.0
09:59 13.8 12.2 90 1017.3 12.1 S 16.8 0.0 0.0
10:00 13.8 12.2 90 1017.4 12.1 SSE 16.8 0.0 0.0
10:01 13.8 12.2 90 1017.3 12.1 SSE 16.8 0.0 0.0
10:02 13.8 12.2 90 1017.4 12.1 SSE 16.8 0.0 0.0
10:03 13.8 12.2 90 1017.2 12.1 SSE 15.9 0.0 0.0
10:04 13.8 12.2 90 1017.4 12.1 SSE 15.2 0.0 0.0
10:05 14.1 12.5 90 1017.3 17.4 S 17.4 0.0 0.0
10:06 14.2 12.8 91 1017.3 14.5 S 17.4 0.0 0.0
10:07 14.3 12.9 91 1017.3 15.2 S 17.4 0.0 0.0
10:08 14.3 12.9 91 1017.6 15.9 S 17.4 0.0 0.0
10:09 14.4 13.0 91 1017.2 16.8 S 17.4 0.0 0.0
10:10 14.4 13.0 91 1017.4 16.8 S 17.4 0.0 0.0
10:11 14.4 12.8 90 1017.3 16.8 SE 17.4 0.0 0.0
10:12 14.4 12.8 90 1017.2 13.0 S 17.4 0.0 0.0
10:13 14.5 12.9 90 1017.2 18.3 S 18.3 0.0 0.0
10:14 14.5 12.9 90 1017.4 12.1 SE 18.3 0.0 0.0
10:15 14.6 13.0 90 1017.3 12.1 SE 18.3 0.0 0.0
10:16 14.7 13.1 90 1017.5 12.1 SSE 18.3 0.0 0.0
10:18 14.8 13.2 90 1017.4 18.3 SW 18.3 0.0 0.0
10:19 14.8 13.2 90 1017.5 18.3 S 18.3 0.0 0.0
10:20 14.8 13.2 90 1017.5 13.0 S 18.3 0.0 0.0
10:21 14.8 13.2 90 1017.1 15.9 S 18.3 0.0 0.0
10:22 14.8 13.0 89 1017.3 15.9 S 18.3 0.0 0.0
10:23 14.9 13.1 89 1017.3 16.8 E 18.3 0.0 0.0
10:24 14.9 13.1 89 1017.4 17.4 S 18.3 0.0 0.0
10:25 14.9 13.1 89 1017.2 15.9 S 18.3 0.0 0.0
10:26 14.9 13.1 89 1017.3 13.6 S 18.3 0.0 0.0
10:27 14.9 13.1 89 1017.2 13.6 S 18.3 0.0 0.0
10:28 14.8 13.0 89 1017.1 17.4 S 18.3 0.0 0.0
10:29 14.8 13.0 89 1017.4 15.9 S 18.3 0.0 0.0
10:30 14.8 12.8 88 1017.3 15.2 S 18.3 0.0 0.0
10:31 14.7 12.7 88 1017.3 19.7 S 19.7 0.0 0.0
10:32 14.7 12.7 88 1017.1 15.9 SE 19.7 0.0 0.0
10:33 14.6 12.5 87 1017.1 14.5 S 19.7 0.0 0.0
10:35 14.8 12.7 87 1017.2 15.2 S 19.7 0.0 0.0
10:36 14.9 12.8 87 1017.0 15.2 S 19.7 0.0 0.0
10:37 15.0 13.0 88 1016.9 15.9 S 19.7 0.0 0.0
10:38 15.0 13.0 88 1016.9 14.5 SE 19.7 0.0 0.0
10:39 15.0 13.0 88 1016.8 15.2 S 19.7 0.0 0.0
10:40 15.1 13.0 87 1017.1 14.5 S 19.7 0.0 0.0
10:41 15.1 13.0 87 1017.1 14.5 S 19.7 0.0 0.0
10:42 15.2 13.1 87 1017.2 10.7 S 15.9 0.0 0.0
10:43 15.3 13.2 87 1016.9 11.4 SW 15.9 0.0 0.0
10:44 15.3 13.2 87 1017.3 11.4 SW 15.9 0.0 0.0
10:45 15.4 13.3 87 1017.0 19.7 SE 19.7 0.0 0.0
10:46 15.5 13.2 86 1017.1 15.2 S 19.7 0.0 0.0
10:47 15.5 13.2 86 1016.9 14.5 SSE 19.7 0.0 0.0
10:48 15.5 13.2 86 1017.0 14.5 SSE 19.7 0.0 0.0
10:49 15.6 13.3 86 1016.9 13.6 S 19.7 0.0 0.0
10:50 15.7 13.2 85 1017.2 13.6 SE 19.7 0.0 0.0
10:51 15.8 13.3 85 1017.0 17.4 S 19.7 0.0 0.0
10:53 15.9 13.2 84 1016.9 18.3 S 19.7 0.0 0.0
10:54 15.9 13.2 84 1017.1 17.4 S 19.7 0.0 0.0
10:55 16.0 13.1 83 1017.0 17.4 SW 19.7 0.0 0.0
10:56 16.1 13.2 83 1017.0 15.9 S 18.3 0.0 0.0
10:57 16.1 13.2 83 1017.1 15.9 S 18.3 0.0 0.0
10:58 16.1 13.2 83 1017.1 11.4 S 18.3 0.0 0.0
10:59 16.1 13.0 82 1017.0 12.1 SE 18.3 0.0 0.0
11:00 16.1 13.0 82 1017.2 15.9 SSE 18.3 0.0 0.0
11:01 16.1 13.0 82 1017.0 15.9 SSE 18.3 0.0 0.0
11:02 16.1 13.0 82 1017.1 15.9 SSE 18.3 0.0 0.0
11:03 16.1 13.0 82 1017.1 15.9 SSE 18.3 0.0 0.0
11:04 16.1 13.0 82 1017.2 15.9 SSE 17.4 0.0 0.0
11:05 16.1 13.0 82 1017.1 15.9 SSE 17.4 0.0 0.0
11:06 16.1 12.8 81 1017.1 16.8 S 21.3 0.0 0.0
11:07 16.0 12.7 81 1016.9 16.8 S 21.3 0.0 0.0
11:08 16.0 12.7 81 1016.9 15.9 S 21.3 0.0 0.0
11:09 15.8 12.6 81 1016.9 14.5 SE 21.3 0.0 0.0
11:11 15.7 12.5 81 1016.7 13.6 SE 21.3 0.0 0.0
11:12 15.6 12.4 81 1016.9 17.4 SE 21.3 0.0 0.0
11:13 15.7 12.6 82 1016.8 13.6 SE 21.3 0.0 0.0
11:14 15.7 12.6 82 1016.8 13.6 SE 21.3 0.0 0.0
11:15 15.7 12.6 82 1016.8 11.4 S 21.3 0.0 0.0
11:16 15.7 12.6 82 1016.8 13.0 SW 17.4 0.0 0.0
11:17 15.7 12.6 82 1016.7 13.6 S 17.4 0.0 0.0
11:18 15.7 12.6 82 1016.7 15.9 S 17.4 0.0 0.0
11:19 15.7 12.8 83 1016.8 15.9 S 17.4 0.0 0.0
11:20 15.8 12.9 83 1016.8 15.2 S 17.4 0.0 0.0
11:21 15.8 12.9 83 1016.9 16.8 S 17.4 0.0 0.0
11:22 15.7 12.8 83 1016.9 14.5 SE 17.4 0.0 0.0
11:23 15.7 12.8 83 1017.1 19.7 SE 19.7 0.0 0.0
11:24 15.7 12.8 83 1016.9 19.7 S 19.7 0.0 0.0
11:25 15.7 12.6 82 1017.0 18.3 S 19.7 0.0 0.0
11:26 15.7 12.6 82 1016.9 18.3 S 19.7 0.0 0.0
11:28 15.7 12.6 82 1016.9 12.1 S 19.7 0.0 0.0
11:29 15.7 12.6 82 1016.9 17.4 S 19.7 0.0 0.0
11:30 15.7 12.6 82 1016.7 17.4 S 19.7 0.0 0.0
11:31 15.6 12.5 82 1016.8 16.8 S 19.7 0.0 0.0
11:32 15.6 12.7 83 1016.9 13.6 SE 19.7 0.0 0.0
11:33 15.6 12.7 83 1016.8 18.3 S 19.7 0.0 0.0
11:34 15.6 12.7 83 1016.9 18.3 SSE 19.7 0.0 0.0
11:35 15.6 12.7 83 1016.8 13.0 SSE 18.3 0.0 0.0
11:36 15.7 12.8 83 1016.7 12.1 S 18.3 0.0 0.0
11:37 15.7 12.8 83 1016.9 13.6 S 18.3 0.0 0.0
11:38 15.8 13.1 84 1016.7 13.6 SE 18.3 0.0 0.0
11:39 15.8 13.1 84 1016.8 14.5 SW 18.3 0.0 0.0
11:40 15.8 13.1 84 1016.8 17.4 S 18.3 0.0 0.0
11:41 15.9 13.2 84 1016.7 12.1 SE 18.3 0.0 0.0
11:42 15.9 13.2 84 1016.8 11.4 SE 18.3 0.0 0.0
11:43 15.9 13.2 84 1017.1 11.4 SE 18.3 0.0 0.0
11:44 16.0 13.1 83 1016.8 16.8 SSE 18.3 0.0 0.0
11:46 15.9 13.0 83 1016.9 13.6 S 17.4 0.0 0.0
11:47 15.8 12.9 83 1016.9 13.6 SW 17.4 0.0 0.0
11:48 15.8 12.9 83 1016.9 15.9 SSE 17.4 0.0 0.0
11:49 15.8 12.9 83 1016.9 15.9 S 17.4 0.0 0.0
11:50 15.8 12.9 83 1017.0 15.9 S 17.4 0.0 0.0
11:51 15.8 12.9 83 1016.7 14.5 SW 17.4 0.0 0.0
11:52 15.8 12.9 83 1017.0 15.2 SW 17.4 0.0 0.0
11:53 15.8 12.9 83 1017.0 15.2 SW 17.4 0.0 0.0
11:54 15.8 13.1 84 1017.0 14.5 S 17.4 0.0 0.0
11:55 15.8 13.1 84 1016.8 14.5 S 15.9 0.0 0.0
11:56 15.8 12.9 83 1016.9 14.5 S 15.9 0.0 0.0
11:57 15.7 12.8 83 1016.8 14.5 S 15.9 0.0 0.0
11:58 15.7 13.0 84 1017.0 16.8 S 18.3 0.0 0.0
11:59 15.6 12.7 83 1016.8 14.5 S 18.3 0.0 0.0
12:00 15.6 12.7 83 1016.6 13.0 SW 18.3 0.0 0.0
12:01 15.6 12.7 83 1016.9 13.0 SW 18.3 0.0 0.0
12:02 15.6 12.7 83 1016.7 13.0 SW 18.3 0.0 0.0
12:04 15.4 12.7 84 1016.9 13.6 S 18.3 0.0 0.0
12:05 15.4 12.7 84 1016.9 13.6 S 18.3 0.0 0.0
12:06 15.4 12.7 84 1017.0 15.2 S 18.3 0.0 0.0
12:07 15.4 12.7 84 1016.8 14.5 S 18.3 0.0 0.0
12:08 15.4 12.7 84 1016.7 19.0 SE 19.0 0.0 0.0
12:09 15.4 12.7 84 1016.8 13.6 SE 19.0 0.0 0.0
12:10 15.4 12.7 84 1016.7 18.3 SE 19.0 0.0 0.0
12:11 15.4 12.7 84 1016.6 14.5 S 19.0 0.0 0.0
12:12 15.4 12.7 84 1016.7 13.6 S 19.0 0.0 0.0
12:13 15.4 12.7 84 1016.7 13.6 S 19.0 0.0 0.0
12:14 15.5 12.8 84 1016.9 15.2 S 19.0 0.0 0.0
12:15 15.5 12.8 84 1016.7 15.9 S 19.0 0.0 0.0
12:16 15.5 12.8 84 1016.6 14.5 SE 19.0 0.0 0.0
12:17 15.5 12.8 84 1016.5 17.4 S 19.0 0.0 0.0
12:18 15.4 12.7 84 1016.7 14.5 S 19.0 0.0 0.0
12:19 15.4 12.7 84 1016.7 17.4 SE 18.3 0.0 0.0
12:20 15.3 12.6 84 1016.8 19.7 S 19.7 0.0 0.0
12:21 15.3 12.6 84 1016.5 14.5 S 19.7 0.0 0.0
12:23 15.2 12.5 84 1016.7 13.6 SW 19.7 0.0 0.0
12:24 15.2 12.5 84 1016.7 13.0 S 19.7 0.0 0.0
12:25 15.2 12.5 84 1016.6 13.0 SW 19.7 0.0 0.0
12:26 15.2 12.5 84 1016.6 13.6 S 19.7 0.0 0.0
12:27 15.2 12.5 84 1016.6 15.2 SE 19.7 0.0 0.0
12:28 15.2 12.5 84 1016.8 13.6 S 19.7 0.0 0.0
12:29 15.2 12.5 84 1016.8 13.6 S 19.7 0.0 0.0
12:30 15.2 12.5 84 1016.8 14.5 S 19.7 0.0 0.0
12:31 15.2 12.5 84 1016.7 15.9 SE 20.6 0.0 0.0
12:32 15.2 12.5 84 1016.7 16.8 S 20.6 0.0 0.0
12:33 15.1 12.4 84 1016.7 16.8 S 20.6 0.0 0.0
12:34 15.1 12.4 84 1016.8 13.6 S 20.6 0.0 0.0
12:35 15.1 12.4 84 1016.7 14.5 S 20.6 0.0 0.0
12:36 15.0 12.3 84 1016.7 14.5 S 20.6 0.0 0.0
12:37 15.0 12.3 84 1016.5 11.4 S 20.6 0.0 0.0
12:38 15.0 12.3 84 1016.7 13.0 S 20.6 0.0 0.0
12:39 15.0 12.3 84 1016.8 13.6 SSE 20.6 0.0 0.0
12:41 14.9 12.2 84 1016.7 16.8 S 17.4 0.0 0.0
12:42 14.9 12.2 84 1016.8 18.3 S 18.3 0.0 0.0
12:43 14.9 12.2 84 1016.7 11.4 S 18.3 0.0 0.0
12:44 14.9 12.2 84 1016.5 14.5 S 18.3 0.0 0.0
12:45 14.8 12.3 85 1016.7 11.4 S 18.3 0.0 0.0
12:46 14.8 12.3 85 1016.6 12.1 S 18.3 0.0 0.0
12:47 14.8 12.3 85 1016.4 10.7 S 18.3 0.0 0.0
12:48 14.8 12.3 85 1016.6 12.1 N 18.3 0.0 0.0
12:49 14.8 12.3 85 1016.5 12.1 SSE 18.3 0.0 0.0
12:50 14.8 12.3 85 1016.5 15.2 S 18.3 0.0 0.0
12:51 14.8 12.3 85 1016.5 13.6 S 18.3 0.0 0.0
12:52 14.8 12.3 85 1016.3 16.8 S 18.3 0.0 0.0
12:53 14.8 12.3 85 1016.7 17.4 S 17.4 0.0 0.0
12:54 14.8 12.3 85 1016.4 10.7 S 17.4 0.0 0.0
12:55 14.8 12.3 85 1016.6 10.7 SSE 17.4 0.0 0.0
12:56 14.8 12.3 85 1016.2 12.1 S 17.4 0.0 0.0
12:59 14.7 12.4 86 1016.7 11.4 SE 17.4 0.0 0.0
13:00 14.7 12.4 86 1016.6 9.8 S 17.4 0.0 0.0
13:01 14.7 12.4 86 1016.5 9.8 S 17.4 0.0 0.0
13:02 14.7 12.4 86 1016.5 9.8 S 17.4 0.0 0.0
13:03 14.6 12.3 86 1016.6 19.0 SE 19.0 0.0 0.0
13:04 14.6 12.3 86 1016.5 13.6 SSE 19.0 0.0 0.0
13:05 14.6 12.3 86 1016.5 13.6 SSE 19.0 0.0 0.0
13:06 14.6 12.3 86 1016.6 15.2 S 19.0 0.0 0.0
13:07 14.6 12.3 86 1016.5 13.0 S 19.0 0.0 0.0
13:08 14.6 12.3 86 1016.4 10.7 SW 19.0 0.0 0.0
13:09 14.6 12.3 86 1016.6 14.5 S 19.0 0.0 0.0
13:10 14.6 12.3 86 1016.5 14.5 SE 19.0 0.0 0.0
13:11 14.6 12.3 86 1016.5 14.5 S 19.0 0.0 0.0
13:12 14.6 12.3 86 1016.4 14.5 S 19.0 0.0 0.0
13:13 14.6 12.5 87 1016.3 15.2 E 19.0 0.0 0.0
13:14 14.6 12.5 87 1016.4 18.3 SE 18.3 0.0 0.0
13:15 14.6 12.5 87 1016.3 17.4 S 18.3 0.0 0.0
13:16 14.6 12.5 87 1016.5 10.7 SSE 18.3 0.0 0.0
13:17 14.7 12.6 87 1016.2 10.7 SE 18.3 0.0 0.0
13:18 14.8 12.7 87 1016.3 17.4 S 18.3 0.0 0.0
13:19 14.8 12.7 87 1016.3 10.7 S 18.3 0.0 0.0
13:21 14.8 12.7 87 1016.5 13.6 S 18.3 0.0 0.0
13:22 14.8 12.7 87 1016.4 11.4 S 18.3 0.0 0.0
13:23 14.8 12.7 87 1016.5 14.5 S 18.3 0.0 0.0
13:24 14.8 12.7 87 1016.6 11.4 S 17.4 0.0 0.0
13:25 14.8 12.7 87 1016.2 15.9 S 17.4 0.0 0.0
13:26 14.8 12.7 87 1016.5 15.2 S 17.4 0.0 0.0
13:27 14.7 12.6 87 1016.3 11.4 SW 17.4 0.0 0.0
13:28 14.7 12.6 87 1016.2 12.1 NW 17.4 0.0 0.0
13:29 14.7 12.6 87 1016.5 13.6 WNW 15.9 0.0 0.0
13:30 14.7 12.6 87 1016.3 13.6 N 15.9 0.0 0.0
13:31 14.7 12.6 87 1016.1 13.6 E 15.9 0.0 0.0
13:32 14.7 12.6 87 1016.2 13.0 S 15.9 0.0 0.0
13:33 14.6 12.5 87 1016.3 17.4 S 17.4 0.0 0.0
13:34 14.6 12.5 87 1016.2 14.5 S 17.4 0.0 0.0
13:35 14.6 12.5 87 1016.4 14.5 WSW 17.4 0.0 0.0
13:36 14.6 12.5 87 1016.3 13.6 S 17.4 0.0 0.0
13:37 14.6 12.5 87 1016.2 14.5 S 17.4 0.0 0.0
13:39 14.5 12.4 87 1016.3 15.9 S 17.4 0.0 0.0
13:40 14.5 12.4 87 1016.3 14.5 SE 17.4 0.0 0.0
13:41 14.5 12.4 87 1016.3 14.5 S 17.4 0.0 0.0
13:42 14.5 12.4 87 1016.1 15.2 SE 17.4 0.0 0.0
13:43 14.5 12.4 87 1016.2 15.2 S 17.4 0.0 0.0
13:44 14.6 12.5 87 1016.1 11.4 S 17.4 0.0 0.0
13:45 14.6 12.5 87 1016.1 11.4 SW 17.4 0.0 0.0
13:46 14.6 12.5 87 1015.9 10.7 SSE 17.4 0.0 0.0
13:47 14.6 12.5 87 1016.2 9.8 S 17.4 0.0 0.0
13:48 14.7 12.6 87 1016.1 8.3 S 17.4 0.0 0.0
13:49 14.7 12.7 88 1016.0 13.0 S 15.9 0.0 0.0
13:50 14.8 12.8 88 1016.2 13.0 S 15.2 0.0 0.0
13:51 14.8 12.8 88 1016.1 10.7 SE 15.2 0.0 0.0
13:52 14.8 12.8 88 1015.9 9.8 S 15.2 0.0 0.0
13:53 14.8 12.8 88 1015.8 12.1 SW 15.2 0.0 0.0
13:54 14.9 12.9 88 1015.9 10.7 SE 15.2 0.0 0.0
13:55 14.9 12.9 88 1016.0 10.7 SE 13.0 0.0 0.0
13:56 14.9 12.8 87 1015.9 13.6 S 13.6 0.0 0.0
13:58 14.9 12.8 87 1015.8 13.6 SE 13.6 0.0 0.0
13:59 14.9 12.8 87 1015.7 14.5 SE 14.5 0.0 0.0
14:00 14.9 12.8 87 1015.8 14.5 S 14.5 0.0 0.0
14:01 14.9 12.8 87 1015.8 14.5 S 14.5 0.0 0.0
14:02 14.9 12.8 87 1015.8 14.5 S 14.5 0.0 0.0
14:03 14.9 12.8 87 1015.9 14.5 S 14.5 0.0 0.0
14:04 14.9 12.8 87 1015.9 14.5 S 14.5 0.0 0.0
14:05 14.9 12.8 87 1016.0 14.5 S 14.5 0.0 0.0
14:06 15.0 12.9 87 1015.9 15.9 SSE 20.6 0.0 0.0
14:07 15.0 12.9 87 1015.9 13.6 N 20.6 0.0 0.0
14:08 15.1 13.0 87 1016.0 12.1 SE 20.6 0.0 0.0
14:09 15.1 13.0 87 1015.9 17.4 SE 20.6 0.0 0.0
14:10 15.1 13.0 87 1016.0 13.0 E 20.6 0.0 0.0
14:11 15.2 13.1 87 1015.9 21.3 S 21.3 0.0 0.0
14:12 15.2 13.1 87 1015.9 14.5 S 21.3 0.0 0.0
14:13 15.2 13.1 87 1015.9 10.7 S 21.3 0.0 0.0
14:14 15.3 13.0 86 1015.8 15.2 E 21.3 0.0 0.0
14:16 15.3 13.0 86 1015.9 10.7 SW 21.3 0.0 0.0
14:17 15.3 12.8 85 1016.0 15.2 SE 21.3 0.0 0.0
14:18 15.4 12.9 85 1015.9 13.6 E 21.3 0.0 0.0
14:19 15.4 12.9 85 1015.9 13.0 SE 21.3 0.0 0.0
14:20 15.4 12.9 85 1015.9 14.5 S 21.3 0.0 0.0
14:21 15.3 12.8 85 1015.9 22.1 S 22.1 0.0 0.0
14:22 15.3 12.8 85 1015.9 22.1 SE 22.1 0.0 0.0
14:23 15.3 12.8 85 1015.9 14.5 S 22.1 0.0 0.0
14:24 15.3 12.8 85 1016.0 14.5 SE 22.1 0.0 0.0
14:25 15.3 12.6 84 1015.9 15.2 S 22.1 0.0 0.0
14:26 15.3 12.6 84 1015.9 14.5 SE 22.1 0.0 0.0
14:27 15.2 12.5 84 1015.8 16.8 S 22.1 0.0 0.0
14:28 15.2 12.5 84 1015.8 16.8 SW 22.1 0.0 0.0
14:29 15.2 12.5 84 1015.8 17.4 S 22.1 0.0 0.0
14:30 15.2 12.3 83 1015.8 16.8 SE 22.1 0.0 0.0
14:31 15.1 12.2 83 1015.9 14.5 S 22.1 0.0 0.0
14:33 15.0 12.1 83 1015.9 14.5 SE 17.4 0.0 0.0
14:34 15.0 12.1 83 1015.9 15.2 S 17.4 0.0 0.0
14:35 15.0 12.1 83 1015.6 17.4 SE 17.4 0.0 0.0
14:36 14.9 12.0 83 1015.8 15.2 SW 17.4 0.0 0.0
14:37 14.8 11.9 83 1015.8 11.4 S 17.4 0.0 0.0
14:38 14.8 11.9 83 1015.8 13.6 S 17.4 0.0 0.0
14:39 14.8 11.9 83 1015.8 16.8 S 17.4 0.0 0.0
14:40 14.8 11.9 83 1015.8 12.1 N 17.4 0.0 0.0
14:41 14.7 11.8 83 1015.6 11.4 SE 17.4 0.0 0.0
14:42 14.7 11.8 83 1015.4 15.2 S 17.4 0.0 0.0
14:43 14.7 11.8 83 1015.5 14.5 SW 17.4 0.0 0.0
14:44 14.7 11.8 83 1015.7 14.5 S 17.4 0.0 0.0
14:45 14.7 11.8 83 1015.4 16.8 SE 17.4 0.0 0.0
14:46 14.7 11.8 83 1015.5 11.4 SE 17.4 0.0 0.0
14:47 14.7 11.8 83 1015.7 9.2 S 16.8 0.0 0.0
14:48 14.8 11.9 83 1015.7 15.2 S 16.8 0.0 0.0
14:50 14.7 11.8 83 1015.7 16.8 SSE 16.8 0.0 0.0
14:51 14.7 11.8 83 1015.7 13.6 SE 16.8 0.0 0.0
14:52 14.7 11.8 83 1015.4 14.5 SE 16.8 0.0 0.0
14:53 14.7 11.8 83 1015.5 15.2 S 16.8 0.0 0.0
14:54 14.7 11.8 83 1015.5 14.5 SSE 16.8 0.0 0.0
14:55 14.7 11.8 83 1015.5 13.0 S 16.8 0.0 0.0
14:56 14.6 11.8 83 1015.5 11.4 SSE 16.8 0.0 0.0
14:57 14.6 11.8 83 1015.5 15.9 S 16.8 0.0 0.0
14:58 14.6 11.8 83 1015.6 13.0 S 16.8 0.0 0.0
14:59 14.6 11.8 83 1015.5 14.5 NE 16.8 0.0 0.0
15:00 14.6 11.6 82 1015.5 9.8 SW 16.8 0.0 0.0
15:01 14.6 11.6 82 1015.4 9.8 SW 15.9 0.0 0.0
15:02 14.6 11.6 82 1015.5 9.8 SW 15.9 0.0 0.0
15:03 14.6 11.6 82 1015.5 9.8 SW 15.9 0.0 0.0
15:04 14.6 11.6 82 1015.3 9.8 SW 15.9 0.0 0.0
15:06 14.5 11.5 82 1015.5 9.8 S 15.9 0.0 0.0
15:07 14.4 11.4 82 1015.4 14.5 S 15.2 0.0 0.0
15:08 14.4 11.4 82 1015.5 16.8 S 16.8 0.0 0.0
15:09 14.4 11.4 82 1015.3 14.5 S 16.8 0.0 0.0
15:10 14.4 11.4 82 1015.3 14.5 SSE 16.8 0.0 0.0
15:11 14.3 11.3 82 1015.5 13.6 SE 16.8 0.0 0.0
15:12 14.3 11.3 82 1015.6 14.5 S 16.8 0.0 0.0
15:13 14.3 11.3 82 1015.6 14.5 S 16.8 0.0 0.0
15:14 14.3 11.3 82 1015.2 11.4 NW 16.8 0.0 0.0
15:15 14.2 11.0 81 1015.2 11.4 S 16.8 0.0 0.0
15:16 14.2 11.0 81 1015.3 12.1 S 16.8 0.0 0.0
15:17 14.2 11.0 81 1015.2 8.3 SE 16.8 0.0 0.0
15:18 14.2 11.0 81 1015.2 8.3 NE 16.8 0.0 0.0
15:19 14.2 11.0 81 1015.2 11.4 SE 14.5 0.0 0.0
15:20 14.2 11.0 81 1015.6 12.1 SE 14.5 0.0 0.0
15:21 14.1 10.9 81 1015.3 7.6 S 14.5 0.0 0.0
15:22 14.1 10.9 81 1015.6 13.6 S 14.5 0.0 0.0
15:23 14.1 10.9 81 1015.4 13.6 SW 13.6 0.0 0.0
15:24 14.1 10.9 81 1015.4 11.4 S 13.6 0.0 0.0
15:25 14.0 10.8 81 1015.5 13.0 S 13.6 0.0 0.0
15:26 14.0 10.8 81 1015.4 10.7 S 13.6 0.0 0.0
15:27 13.9 10.7 81 1015.4 12.1 S 13.6 0.0 0.0
15:28 13.9 10.7 81 1015.3 11.4 SE 13.6 0.0 0.0
15:30 13.8 10.8 82 1015.3 10.7 SE 13.6 0.0 0.0
15:31 13.8 10.8 82 1015.3 10.7 SE 13.6 0.0 0.0
15:32 13.7 10.7 82 1015.2 13.6 SE 13.6 0.0 0.0
15:33 13.7 10.7 82 1015.2 10.7 S 13.6 0.0 0.0
15:34 13.7 10.7 82 1015.3 13.0 S 13.6 0.0 0.0
15:35 13.6 10.6 82 1015.4 13.0 S 13.6 0.0 0.0
15:36 13.6 10.6 82 1015.1 11.4 SW 13.6 0.0 0.0
15:37 13.6 10.6 82 1015.1 11.4 SW 13.6 0.0 0.0
15:38 13.5 10.5 82 1015.1 11.4 NE 15.2 0.0 0.0
15:39 13.5 10.5 82 1015.2 14.5 S 15.2 0.8 0.1
15:40 13.4 10.4 82 1015.2 14.5 S 15.2 0.8 0.1
15:41 13.4 10.6 83 1015.1 13.6 S 15.2 0.8 0.1
15:42 13.4 10.6 83 1015.1 18.3 S 18.3 1.5 0.1
15:43 13.3 10.5 83 1015.0 18.3 S 18.3 1.5 0.1
15:44 13.3 10.5 83 1015.3 13.0 S 18.3 0.8 0.1
15:45 13.2 10.4 83 1015.2 11.4 S 18.3 0.8 0.1
15:46 13.2 10.4 83 1015.4 17.4 SW 18.3 0.8 0.1
15:47 13.2 10.6 84 1015.2 15.9 S 18.3 0.0 0.1
15:49 13.1 10.5 84 1015.5 14.5 S 18.3 0.8 0.2
15:50 13.1 10.5 84 1015.6 18.3 S 18.3 0.8 0.2
15:51 13.0 10.4 84 1015.3 13.6 S 18.3 0.8 0.2
15:52 13.0 10.5 85 1015.3 13.0 SE 18.3 1.5 0.3
15:53 13.0 10.5 85 1015.4 14.5 WSW 18.3 1.5 0.3
15:54 13.0 10.5 85 1015.5 13.6 S 18.3 0.8 0.3
15:55 12.9 10.4 85 1015.4 15.2 S 18.3 0.8 0.3
15:56 12.9 10.4 85 1015.3 15.2 S 18.3 1.5 0.3
15:57 12.9 10.4 85 1015.3 17.4 SW 18.3 0.8 0.3
15:58 12.9 10.6 86 1015.1 18.3 N 18.3 0.8 0.3
15:59 12.8 10.5 86 1015.2 11.4 SW 18.3 0.8 0.3
16:00 12.8 10.5 86 1015.1 10.7 S 18.3 1.5 0.4
16:01 12.8 10.5 86 1015.2 10.7 S 18.3 0.8 0.4
16:02 12.8 10.5 86 1014.9 10.7 S 18.3 0.8 0.4
16:03 12.8 10.5 86 1015.1 10.7 S 18.3 0.8 0.4
16:04 12.8 10.5 86 1015.0 10.7 S 18.3 0.8 0.4
16:05 12.8 10.7 87 1015.0 15.9 SE 18.3 0.0 0.4
16:07 12.9 10.8 87 1014.9 13.6 SW 18.3 0.0 0.4
16:08 12.8 10.9 88 1014.9 13.0 S 18.3 0.0 0.4
16:09 12.8 10.9 88 1014.9 13.6 SW 15.9 0.0 0.4
16:10 12.8 10.9 88 1015.1 13.6 S 15.9 0.0 0.4
16:11 12.9 11.0 88 1014.9 9.8 S 15.9 0.0 0.4
16:12 12.9 11.0 88 1015.1 14.5 S 15.9 0.0 0.4
16:13 12.9 11.0 88 1014.8 14.5 SW 15.9 0.0 0.4
16:14 12.9 11.1 89 1015.0 14.5 S 15.9 0.0 0.4
16:15 12.9 11.1 89 1015.2 12.1 S 15.9 0.0 0.4
16:16 12.8 11.0 89 1014.9 12.1 S 14.5 0.0 0.4
16:17 12.8 11.0 89 1015.0 13.6 SSW 14.5 0.0 0.4
16:18 12.8 11.0 89 1015.0 18.3 S 18.3 0.0 0.4
16:19 12.8 11.0 89 1015.0 19.0 S 19.0 0.0 0.4
16:20 12.8 11.0 89 1015.0 19.0 SE 19.0 0.0 0.4
16:21 12.8 11.0 89 1015.1 15.9 SW 19.0 0.0 0.4
16:22 12.8 11.0 89 1015.0 16.8 SW 19.7 0.0 0.4
16:23 12.8 11.0 89 1015.1 14.5 SW 19.7 0.0 0.4
16:24 12.8 11.0 89 1015.1 17.4 S 19.7 1.5 0.6
16:26 12.8 11.0 89 1015.0 13.6 S 19.7 3.8 0.8
16:27 12.7 10.9 89 1014.9 11.4 SW 19.7 5.3 0.8
16:28 12.7 10.9 89 1014.9 13.6 S 19.7 6.0 0.9
16:29 12.7 10.9 89 1015.0 17.4 S 19.7 5.3 1.0
16:30 12.7 10.9 89 1014.9 13.0 WSW 19.7 4.5 1.0
16:31 12.7 10.9 89 1014.9 15.2 S 19.7 3.8 1.0
16:32 12.7 10.9 89 1014.9 15.2 SE 17.4 3.0 1.1
16:33 12.7 10.9 89 1014.9 13.6 S 17.4 2.3 1.1
16:34 12.6 10.8 89 1014.8 10.7 S 17.4 1.5 1.1
16:35 12.6 10.8 89 1015.0 9.2 S 17.4 1.5 1.1
16:36 12.6 10.8 89 1014.7 13.0 S 17.4 1.5 1.1
16:37 12.6 10.8 89 1014.9 13.6 S 17.4 0.8 1.1
16:38 12.6 10.8 89 1014.9 10.7 S 17.4 0.8 1.1
16:39 12.6 10.8 89 1015.0 7.6 SW 17.4 0.8 1.1
16:40 12.6 10.8 89 1014.8 8.3 S 15.2 0.0 1.1
16:41 12.6 10.8 89 1014.8 9.8 SE 15.2 0.0 1.1
16:42 12.6 11.0 90 1014.9 9.2 S 13.6 0.0 1.1
16:44 12.6 11.0 90 1014.9 11.4 SE 13.6 0.8 1.2
16:45 12.6 11.0 90 1014.8 11.4 S 13.6 0.8 1.3
16:46 12.6 11.0 90 1015.0 9.8 SE 13.6 1.5 1.3
16:47 12.6 11.0 90 1014.9 9.8 SE 13.6 1.5 1.3
16:48 12.6 11.0 90 1014.9 11.4 SW 11.4 1.5 1.3
16:49 12.6 11.0 90 1014.8 10.7 S 11.4 0.8 1.3
16:50 12.6 11.0 90 1014.6 10.7 SE 11.4 0.8 1.3
16:51 12.6 11.0 90 1014.7 8.3 S 11.4 0.8 1.3
16:52 12.6 11.0 90 1014.7 12.1 S 12.1 1.5 1.4
16:53 12.6 11.0 90 1014.9 11.4 S 12.1 1.5 1.4
16:54 12.6 11.0 90 1015.0 6.9 S 12.1 1.5 1.4
16:55 12.6 11.0 90 1014.8 7.6 S 12.1 2.3 1.4
16:56 12.6 11.0 90 1014.9 6.9 SE 12.1 2.3 1.5
16:57 12.6 11.0 90 1014.8 9.2 S 12.1 1.5 1.5
16:58 12.6 11.0 90 1015.0 10.7 SW 12.1 1.5 1.6
16:59 12.6 11.0 90 1015.0 10.7 S 12.1 3.0 1.6
17:00 12.6 11.0 90 1015.0 7.6 SE 12.1 3.0 1.7
17:01 12.6 11.0 90 1014.6 7.6 SE 12.1 2.3 1.7
17:03 12.6 11.0 90 1014.8 7.6 SE 10.7 2.3 1.7
17:04 12.6 11.0 90 1014.8 7.6 SE 10.7 0.8 1.7
17:05 12.6 11.0 90 1014.7 7.6 SE 10.7 0.0 1.7
17:06 12.6 11.0 90 1014.8 7.6 SE 10.7 0.0 1.7
17:07 12.6 11.0 90 1014.8 7.6 SE 10.7 0.0 1.7
17:08 12.6 11.0 90 1014.8 7.6 SE 10.7 0.0 1.7
17:09 12.6 11.0 90 1014.8 7.6 SE 10.7 0.0 1.7
17:10 12.5 11.1 91 1015.0 6.9 SSE 7.6 5.3 2.1
17:11 12.5 11.1 91 1014.8 6.9 S 7.6 6.0 2.2
17:12 12.5 11.1 91 1014.9 6.9 SE 7.6 6.0 2.2
17:13 12.5 11.1 91 1014.7 6.0 S 7.6 6.8 2.3
17:14 12.5 11.1 91 1014.8 4.5 S 7.6 6.8 2.3
17:15 12.5 11.1 91 1014.8 6.0 S 7.6 2.3 2.3
17:16 12.5 11.1 91 1015.0 7.6 S 7.6 1.5 2.3
17:17 12.5 11.1 91 1014.9 5.4 N 7.6 2.3 2.4
17:18 12.5 11.1 91 1014.8 8.3 SE 8.3 1.5 2.4
17:19 12.5 11.1 91 1015.2 8.3 SE 8.3 1.5 2.4
17:20 12.5 11.1 91 1015.1 6.9 NE 8.3 1.5 2.5
17:21 12.4 11.6 95 1015.0 7.6 SE 8.3 1.5 2.5
17:22 12.4 11.6 95 1015.1 9.8 SE 9.8 1.5 2.6
17:23 12.4 11.6 95 1015.2 8.3 S 9.8 3.0 2.6
17:25 12.4 11.6 95 1014.8 5.4 S 9.8 3.0 2.8
17:26 12.4 11.6 95 1014.8 5.4 S 9.8 3.8 2.8
17:27 12.4 11.6 95 1014.8 4.5 SSE 9.8 3.0 2.8
17:28 12.4 11.6 95 1014.7 6.0 SE 9.8 2.3 2.9
17:29 12.4 11.6 95 1014.9 6.0 SE 9.8 3.0 2.9
17:30 12.4 11.6 95 1014.9 6.0 SE 9.8 2.3 2.9
17:31 12.4 11.6 95 1014.7 6.9 S 9.8 1.5 2.9
17:32 12.4 11.6 95 1014.8 6.9 S 9.8 2.3 3.0
17:33 12.4 11.6 95 1015.0 6.9 E 8.3 2.3 3.0
17:34 12.5 11.2 92 1014.6 6.0 SE 6.9 1.5 3.0
17:35 12.5 11.2 92 1014.7 6.9 S 6.9 1.5 3.0
17:36 12.5 11.2 92 1014.7 6.9 SE 6.9 2.3 3.1
17:37 12.5 11.2 92 1014.7 4.5 E 6.9 1.5 3.1
17:38 12.5 11.2 92 1014.8 4.5 E 6.9 0.8 3.1
17:39 12.5 11.2 92 1014.7 4.5 S 6.9 0.8 3.1
17:40 12.5 11.2 92 1014.7 4.5 S 6.9 1.5 3.1
17:42 12.5 11.2 92 1015.0 5.4 SE 6.9 0.8 3.1
17:43 12.5 11.2 92 1014.8 6.9 S 6.9 0.8 3.1
17:44 12.4 11.8 96 1014.8 9.8 SE 9.8 0.8 3.1
17:45 12.4 11.8 96 1015.0 6.9 S 9.8 0.0 3.1
17:46 12.4 11.8 96 1015.0 7.6 SSE 9.8 0.0 3.1
17:47 12.4 11.8 96 1015.1 9.2 S 9.8 0.0 3.1
17:48 12.4 11.8 96 1015.0 7.6 SE 9.8 0.0 3.1
17:49 12.4 11.8 96 1015.0 7.6 SE 9.8 0.0 3.1
17:50 12.4 11.8 96 1015.0 7.6 SE 9.8 0.0 3.1
17:51 12.3 11.7 96 1015.0 6.9 SE 9.8 1.5 3.3
17:52 12.3 11.7 96 1014.8 7.6 NE 9.8 1.5 3.3
17:53 12.3 11.7 96 1014.7 6.9 S 9.8 2.3 3.3
17:54 12.3 11.7 96 1014.8 6.0 SE 9.8 3.0 3.4
17:55 12.3 11.7 96 1014.7 11.4 ESE 11.4 3.0 3.4
17:56 12.3 11.7 96 1014.7 4.5 SE 11.4 2.3 3.5
17:57 12.3 11.7 96 1014.8 5.4 S 11.4 3.0 3.5
17:58 12.3 11.7 96 1014.9 6.0 S 11.4 2.3 3.5
17:59 12.3 11.7 96 1015.1 9.8 S 11.4 1.5 3.5
18:01 12.3 11.7 96 1015.1 9.2 S 11.4 0.8 3.6
18:02 12.3 11.7 96 1014.9 12.1 S 12.1 0.8 3.6
18:03 12.3 11.7 96 1014.9 12.1 S 12.1 1.5 3.7
18:04 12.3 11.7 96 1014.7 8.3 SE 12.1 1.5 3.7
18:05 12.3 11.8 97 1015.0 9.2 NE 12.1 1.5 3.7
18:06 12.3 11.8 97 1014.7 9.2 NE 12.1 2.3 3.7
18:07 12.3 11.8 97 1014.6 5.4 E 12.1 1.5 3.7
18:08 12.3 11.8 97 1014.6 6.0 SE 12.1 0.8 3.7
18:09 12.4 11.9 97 1014.7 6.0 SE 12.1 0.8 3.7
18:10 12.4 11.9 97 1014.6 6.9 S 12.1 0.8 3.7
18:11 12.4 11.9 97 1014.7 6.9 S 12.1 0.8 3.8
18:12 12.4 11.9 97 1014.8 8.3 SSE 12.1 0.8 3.8
18:13 12.4 11.9 97 1014.9 7.6 S 12.1 0.8 3.8
18:14 12.4 11.9 97 1014.8 7.6 S 10.7 0.8 3.8
18:15 12.4 11.9 97 1014.8 7.6 S 10.7 0.8 3.8
18:16 12.4 11.9 97 1014.7 9.8 SE 10.7 0.0 3.8
18:17 12.5 11.4 93 1014.8 13.6 SE 13.6 0.0 3.8
18:19 12.5 11.4 93 1014.8 9.2 SE 13.6 0.0 3.8
18:20 12.5 11.4 93 1014.7 10.7 S 13.6 0.0 3.8
18:21 12.6 11.5 93 1014.9 9.2 S 13.6 0.0 3.8
18:22 12.6 11.5 93 1014.9 9.2 S 13.6 0.0 3.8
18:23 12.6 11.5 93 1014.7 12.1 SSE 13.6 0.0 3.8
18:24 12.6 11.5 93 1014.9 12.1 SSE 13.6 0.0 3.8
18:25 12.6 11.5 93 1014.9 12.1 SSE 13.6 0.0 3.8
18:26 12.6 11.5 93 1014.9 12.1 SSE 13.6 0.0 3.8
18:27 12.6 11.5 93 1014.9 12.1 SSE 13.6 0.0 3.8
18:28 12.6 11.5 93 1014.9 12.1 SSE 13.6 0.0 3.8
18:29 12.6 11.5 93 1014.9 12.1 SSE 13.6 0.0 3.8
18:30 12.6 11.5 93 1014.9 12.1 SSE 13.6 0.0 3.8
18:31 12.6 11.5 93 1014.9 12.1 SSE 13.6 0.0 3.8
18:32 12.6 11.5 93 1014.9 12.1 SSE 13.6 0.0 3.8
18:33 12.6 11.5 93 1014.9 12.1 SSE 13.6 0.0 3.8
18:34 12.6 11.5 93 1014.9 12.1 SSE 13.6 0.0 3.8
18:35 12.6 11.5 93 1014.9 12.1 SSE 13.6 0.0 3.8
18:36 12.6 11.5 93 1014.9 12.1 SSE 13.6 0.0 3.8
18:38 12.6 11.5 93 1014.9 12.1 SSE 13.6 0.0 3.8
18:39 12.6 11.5 93 1014.9 12.1 SSE 13.6 0.0 3.8
18:40 12.6 11.5 93 1014.9 12.1 SSE 13.6 0.0 3.8
18:41 12.6 11.5 93 1014.9 12.1 SSE 13.6 0.0 3.8
18:42 12.6 11.5 93 1014.9 12.1 SSE 13.6 0.0 3.8
18:43 12.6 11.5 93 1014.9 12.1 SSE 13.6 0.0 3.8
18:44 12.6 11.5 93 1014.9 12.1 SSE 13.6 0.0 3.8
18:45 12.6 11.5 93 1014.9 12.1 SSE 13.6 0.0 3.8
18:46 12.6 11.5 93 1014.9 12.1 SSE 13.6 0.0 3.8
18:47 12.6 11.5 93 1014.9 12.1 SSE 13.6 0.0 3.8
18:48 12.6 11.5 93 1014.9 12.1 SSE 13.6 0.0 3.8
18:49 12.6 11.5 93 1014.9 12.1 SSE 13.6 0.0 3.8
18:50 12.6 11.5 93 1014.9 12.1 SSE 13.6 0.0 3.8
18:51 12.6 11.5 93 1014.9 12.1 SSE 13.6 0.0 3.8
18:52 12.6 11.5 93 1014.9 12.1 SSE 13.6 0.0 3.8
18:53 12.6 11.5 93 1014.9 12.1 SSE 13.6 0.0 3.8
18:54 12.6 11.5 93 1014.9 12.1 SSE 13.6 0.0 3.8
18:56 12.6 11.5 93 1014.9 12.1 SSE 13.6 0.0 3.8
18:57 12.6 11.5 93 1014.9 12.1 SSE 13.6 0.0 3.8
18:58 12.6 11.5 93 1014.9 12.1 SSE 13.6 0.0 3.8
18:59 12.6 11.5 93 1014.9 12.1 SSE 13.6 0.0 3.8
19:00 12.6 11.5 93 1014.9 12.1 SSE 13.6 0.0 3.8
19:01 12.6 11.5 93 1014.9 12.1 SSE 13.6 0.0 3.8
19:02 12.6 11.5 93 1014.9 12.1 SSE 13.6 0.0 3.8
19:03 12.6 11.5 93 1014.9 12.1 SSE 13.6 0.0 3.8
19:04 12.6 11.5 93 1014.9 12.1 SSE 13.6 0.0 3.8
19:05 12.6 11.5 93 1014.9 12.1 SSE 13.6 0.0 3.8
19:06 12.6 11.5 93 1014.9 12.1 SSE 13.6 0.0 3.8
19:07 12.6 11.5 93 1014.9 12.1 SSE 13.6 0.0 3.8
19:08 12.6 11.5 93 1014.9 12.1 SSE 13.6 0.0 3.8
19:09 12.6 11.5 93 1014.9 12.1 SSE 13.6 0.0 3.8
19:10 12.6 11.5 93 1014.9 12.1 SSE 13.6 0.0 3.8
19:11 12.6 11.5 93 1014.9 12.1 SSE 13.6 0.0 3.8
19:13 12.6 11.5 93 1014.9 12.1 SSE 13.6 0.0 3.8
19:14 12.6 11.5 93 1014.9 12.1 SSE 13.6 0.0 3.8
19:15 12.6 11.5 93 1014.9 12.1 SSE 13.6 0.0 3.8
19:16 12.6 11.5 93 1014.9 12.1 SSE 13.6 0.0 3.8
19:17 12.6 11.5 93 1014.9 12.1 SSE 13.6 0.0 3.8
19:18 12.6 11.5 93 1014.9 12.1 SSE 13.6 0.0 3.8
19:19 12.6 11.5 93 1014.9 12.1 SSE 13.6 0.0 3.8
19:21 12.6 11.5 93 1014.9 12.1 SSE 13.6 0.0 3.8
19:22 12.6 11.5 93 1014.9 12.1 SSE 13.6 0.0 3.8
19:23 12.6 11.5 93 1014.9 12.1 SSE 13.6 0.0 3.8
19:24 12.6 11.5 93 1014.9 12.1 SSE 13.6 0.0 3.8
19:25 12.6 11.5 93 1014.9 12.1 SSE 13.6 0.0 3.8
19:26 12.6 11.5 93 1014.9 12.1 SSE 13.6 0.0 3.8
19:27 12.6 11.5 93 1014.9 12.1 SSE 13.6 0.0 3.8
19:28 12.6 11.5 93 1014.9 12.1 SSE 13.6 0.0 3.8
19:29 12.6 11.5 93 1014.9 12.1 SSE 13.6 0.0 3.8
19:30 12.6 11.5 93 1014.9 12.1 SSE 13.6 0.0 3.8
19:31 12.6 11.5 93 1014.9 12.1 SSE 13.6 0.0 3.8
19:32 12.6 11.5 93 1014.9 12.1 SSE 13.6 0.0 3.8
19:33 12.6 11.5 93 1014.9 12.1 SSE 13.6 0.0 3.8
19:34 12.6 11.5 93 1014.9 12.1 SSE 13.6 0.0 3.8
19:35 12.6 11.5 93 1014.9 12.1 SSE 13.6 0.0 3.8
19:36 12.6 11.5 93 1014.9 12.1 SSE 13.6 0.0 3.8
19:37 12.6 11.5 93 1014.9 12.1 SSE 13.6 0.0 3.8
19:38 12.6 11.5 93 1014.9 12.1 SSE 13.6 0.0 3.8
19:40 12.6 11.5 93 1014.9 12.1 SSE 13.6 0.0 3.8
19:41 12.6 11.5 93 1014.9 12.1 SSE 13.6 0.0 3.8
19:42 12.6 11.5 93 1014.9 12.1 SSE 13.6 0.0 3.8
19:43 12.6 11.5 93 1014.9 12.1 SSE 13.6 0.0 3.8
19:44 12.6 11.5 93 1014.9 12.1 SSE 13.6 0.0 3.8
19:45 12.6 11.5 93 1014.9 12.1 SSE 13.6 0.0 3.8
19:46 12.6 11.5 93 1014.9 12.1 SSE 13.6 0.0 3.8
19:47 12.6 11.5 93 1014.9 12.1 SSE 13.6 0.0 3.8
19:48 12.6 11.5 93 1014.9 12.1 SSE 13.6 0.0 3.8
19:49 12.6 11.5 93 1014.9 12.1 SSE 13.6 0.0 3.8
19:50 12.6 11.5 93 1014.9 12.1 SSE 13.6 0.0 3.8
19:51 12.6 11.5 93 1014.9 12.1 SSE 13.6 0.0 3.8
19:52 12.6 11.5 93 1014.9 12.1 SSE 13.6 0.0 3.8
19:53 12.6 11.5 93 1014.9 12.1 SSE 13.6 0.0 3.8
19:54 12.6 11.5 93 1014.9 12.1 SSE 13.6 0.0 3.8
19:55 12.6 11.5 93 1014.9 12.1 SSE 13.6 0.0 3.8
19:56 12.6 11.5 93 1014.9 12.1 SSE 13.6 0.0 3.8
19:57 12.6 11.5 93 1014.9 12.1 SSE 13.6 0.0 3.8
19:59 12.6 11.5 93 1014.9 12.1 SSE 13.6 0.0 3.8
20:00 12.6 11.5 93 1014.9 12.1 SSE 13.6 0.0 3.8
20:01 12.6 11.5 93 1014.9 12.1 SSE 13.6 0.0 3.8
20:02 12.6 11.5 93 1014.9 12.1 SSE 13.6 0.0 3.8
20:03 12.6 11.5 93 1014.9 12.1 SSE 13.6 0.0 3.8
20:04 12.6 11.5 93 1014.9 12.1 SSE 13.6 0.0 3.8
20:05 12.6 11.5 93 1014.9 12.1 SSE 13.6 0.0 3.8
20:06 12.6 11.5 93 1014.9 12.1 SSE 13.6 0.0 3.8
20:07 12.6 11.5 93 1014.9 12.1 SSE 13.6 0.0 3.8
20:08 12.6 11.5 93 1014.9 12.1 SSE 13.6 0.0 3.8
20:09 12.6 11.5 93 1014.9 12.1 SSE 13.6 0.0 3.8
20:10 12.6 11.5 93 1014.9 12.1 SSE 13.6 0.0 3.8
20:11 12.6 11.5 93 1014.9 12.1 SSE 13.6 0.0 3.8
20:12 12.6 11.5 93 1014.9 12.1 SSE 13.6 0.0 3.8
20:13 12.6 11.5 93 1014.9 12.1 SSE 13.6 0.0 3.8
20:14 12.6 11.5 93 1014.9 12.1 SSE 13.6 0.0 3.8
20:15 12.6 11.5 93 1014.9 12.1 SSE 13.6 0.0 3.8
20:17 12.6 11.5 93 1014.9 12.1 SSE 13.6 0.0 3.8
20:18 12.6 11.5 93 1014.9 12.1 SSE 13.6 0.0 3.8
20:19 12.6 11.5 93 1014.9 12.1 SSE 13.6 0.0 3.8
20:20 12.6 11.5 93 1014.9 12.1 SSE 13.6 0.0 3.8
20:21 12.6 11.5 93 1014.9 12.1 SSE 13.6 0.0 3.8
20:22 12.6 11.5 93 1014.9 12.1 SSE 13.6 0.0 3.8
20:23 12.6 11.5 93 1014.9 12.1 SSE 13.6 0.0 3.8
20:24 12.6 11.5 93 1014.9 12.1 SSE 13.6 0.0 3.8
20:25 12.6 11.5 93 1014.9 12.1 SSE 13.6 0.0 3.8
20:26 12.6 11.5 93 1014.9 12.1 SSE 13.6 0.0 3.8
20:27 12.6 11.5 93 1014.9 12.1 SSE 13.6 0.0 3.8
20:28 12.6 11.5 93 1014.9 12.1 SSE 13.6 0.0 3.8
20:29 12.6 11.5 93 1014.9 12.1 SSE 13.6 0.0 3.8
20:30 12.6 11.5 93 1014.9 12.1 SSE 13.6 0.0 3.8
20:31 12.6 11.5 93 1014.9 12.1 SSE 13.6 0.0 3.8
20:32 12.6 11.5 93 1014.9 12.1 SSE 13.6 0.0 3.8
20:33 12.6 11.5 93 1014.9 12.1 SSE 13.6 0.0 3.8
20:34 12.6 11.5 93 1014.9 12.1 SSE 13.6 0.0 3.8
20:36 12.6 11.5 93 1014.9 12.1 SSE 13.6 0.0 3.8
20:37 12.6 11.5 93 1014.9 12.1 SSE 13.6 0.0 3.8
20:38 12.6 11.5 93 1014.9 12.1 SSE 13.6 0.0 3.8
20:39 12.6 11.5 93 1014.9 12.1 SSE 13.6 0.0 3.8
20:40 12.6 11.5 93 1014.9 12.1 SSE 13.6 0.0 3.8
20:41 12.6 11.5 93 1014.9 12.1 SSE 13.6 0.0 3.8
20:42 12.6 11.5 93 1014.9 12.1 SSE 13.6 0.0 3.8
20:43 12.6 11.5 93 1014.9 12.1 SSE 13.6 0.0 3.8
20:44 12.6 11.5 93 1014.9 12.1 SSE 13.6 0.0 3.8
20:45 12.6 11.5 93 1014.9 12.1 SSE 13.6 0.0 3.8
20:46 12.6 11.5 93 1014.9 12.1 SSE 13.6 0.0 3.8
20:47 12.6 11.5 93 1014.9 12.1 SSE 13.6 0.0 3.8
20:48 12.6 11.5 93 1014.9 12.1 SSE 13.6 0.0 3.8
20:49 12.6 11.5 93 1014.9 12.1 SSE 13.6 0.0 3.8
20:50 12.6 11.5 93 1014.9 12.1 SSE 13.6 0.0 3.8
20:51 12.6 11.5 93 1014.9 12.1 SSE 13.6 0.0 3.8
20:52 12.6 11.5 93 1014.9 12.1 SSE 13.6 0.0 3.8
20:53 12.6 11.5 93 1014.9 12.1 SSE 13.6 0.0 3.8
20:55 12.6 11.5 93 1014.9 12.1 SSE 13.6 0.0 3.8
20:56 12.6 11.5 93 1014.9 12.1 SSE 13.6 0.0 3.8
20:57 12.6 11.5 93 1014.9 12.1 SSE 13.6 0.0 3.8
20:58 12.6 11.5 93 1014.9 12.1 SSE 13.6 0.0 3.8
20:59 12.6 11.5 93 1014.9 12.1 SSE 13.6 0.0 3.8
21:00 12.6 11.5 93 1014.9 12.1 SSE 13.6 0.0 3.8
21:01 12.6 11.5 93 1014.9 12.1 SSE 13.6 0.0 3.8
21:02 12.6 11.5 93 1014.9 12.1 SSE 13.6 0.0 3.8
21:03 12.6 11.5 93 1014.9 12.1 SSE 13.6 0.0 3.8
21:04 12.6 11.5 93 1014.9 12.1 SSE 13.6 0.0 3.8
21:05 12.6 11.5 93 1014.9 12.1 SSE 13.6 0.0 3.8
21:06 12.6 11.5 93 1014.9 12.1 SSE 13.6 0.0 3.8
21:07 12.6 11.5 93 1014.9 12.1 SSE 13.6 0.0 3.8
21:08 12.6 11.5 93 1014.9 12.1 SSE 13.6 0.0 3.8
21:09 12.6 11.5 93 1014.9 12.1 SSE 13.6 0.0 3.8
21:10 12.6 11.5 93 1014.9 12.1 SSE 13.6 0.0 3.8
21:11 12.6 11.5 93 1014.9 12.1 SSE 13.6 0.0 3.8
21:12 12.6 11.5 93 1014.9 12.1 SSE 13.6 0.0 3.8
21:14 12.6 11.5 93 1014.9 12.1 SSE 13.6 0.0 3.8
21:15 12.6 11.5 93 1014.9 12.1 SSE 13.6 0.0 3.8
21:16 12.6 11.5 93 1014.9 12.1 SSE 13.6 0.0 3.8
21:17 12.6 11.5 93 1014.9 12.1 SSE 13.6 0.0 3.8
21:18 12.6 11.5 93 1014.9 12.1 SSE 13.6 0.0 3.8
21:19 12.6 11.5 93 1014.9 12.1 SSE 13.6 0.0 3.8
21:21 12.6 11.5 93 1014.9 12.1 SSE 13.6 0.0 3.8
21:22 12.6 11.5 93 1014.9 12.1 SSE 13.6 0.0 3.8
21:23 12.6 11.5 93 1014.9 12.1 SSE 13.6 0.0 3.8
21:24 12.6 11.5 93 1014.9 12.1 SSE 13.6 0.0 3.8
21:25 12.6 11.5 93 1014.9 12.1 SSE 13.6 0.0 3.8
21:26 12.6 11.5 93 1014.9 12.1 SSE 13.6 0.0 3.8
21:27 12.6 11.5 93 1014.9 12.1 SSE 13.6 0.0 3.8
21:28 12.6 11.5 93 1014.9 12.1 SSE 13.6 0.0 3.8
21:29 12.6 11.5 93 1014.9 12.1 SSE 13.6 0.0 3.8
21:30 12.6 11.5 93 1014.9 12.1 SSE 13.6 0.0 3.8
21:31 12.6 11.5 93 1014.9 12.1 SSE 13.6 0.0 3.8
21:32 12.6 11.5 93 1014.9 12.1 SSE 13.6 0.0 3.8
21:33 12.6 11.5 93 1014.9 12.1 SSE 13.6 0.0 3.8
21:34 12.6 11.5 93 1014.9 12.1 SSE 13.6 0.0 3.8
21:35 12.6 11.5 93 1014.9 12.1 SSE 13.6 0.0 3.8
21:36 12.6 11.5 93 1014.9 12.1 SSE 13.6 0.0 3.8
21:37 12.6 11.5 93 1014.9 12.1 SSE 13.6 0.0 3.8
21:38 12.6 11.5 93 1014.9 12.1 SSE 13.6 0.0 3.8
21:40 12.6 11.5 93 1014.9 12.1 SSE 13.6 0.0 3.8
21:41 12.6 11.5 93 1014.9 12.1 SSE 13.6 0.0 3.8
21:42 12.6 11.5 93 1014.9 12.1 SSE 13.6 0.0 3.8
21:43 12.6 11.5 93 1014.9 12.1 SSE 13.6 0.0 3.8
21:44 12.6 11.5 93 1014.9 12.1 SSE 13.6 0.0 3.8
21:45 12.6 11.5 93 1014.9 12.1 SSE 13.6 0.0 3.8
21:46 12.6 11.5 93 1014.9 12.1 SSE 13.6 0.0 3.8
21:47 12.6 11.5 93 1014.9 12.1 SSE 13.6 0.0 3.8
21:48 12.6 11.5 93 1014.9 12.1 SSE 13.6 0.0 3.8
21:49 12.6 11.5 93 1014.9 12.1 SSE 13.6 0.0 3.8
21:50 12.6 11.5 93 1014.9 12.1 SSE 13.6 0.0 3.8
21:51 12.6 11.5 93 1014.9 12.1 SSE 13.6 0.0 3.8
21:52 12.6 11.5 93 1014.9 12.1 SSE 13.6 0.0 3.8
21:53 12.6 11.5 93 1014.9 12.1 SSE 13.6 0.0 3.8
21:54 12.6 11.5 93 1014.9 12.1 SSE 13.6 0.0 3.8
21:55 12.6 11.5 93 1014.9 12.1 SSE 13.6 0.0 3.8
21:56 12.6 11.5 93 1014.9 12.1 SSE 13.6 0.0 3.8
21:57 12.6 11.5 93 1014.9 12.1 SSE 13.6 0.0 3.8
21:59 12.6 11.5 93 1014.9 12.1 SSE 13.6 0.0 3.8
22:00 12.6 11.5 93 1014.9 12.1 SSE 13.6 0.0 3.8
22:01 12.6 11.5 93 1014.9 12.1 SSE 13.6 0.0 3.8
22:02 12.6 11.5 93 1014.9 12.1 SSE 13.6 0.0 3.8
22:03 12.6 11.5 93 1014.9 12.1 SSE 13.6 0.0 3.8
22:04 12.6 11.5 93 1014.9 12.1 SSE 13.6 0.0 3.8
22:05 12.6 11.5 93 1014.9 12.1 SSE 13.6 0.0 3.8
22:06 12.6 11.5 93 1014.9 12.1 SSE 13.6 0.0 3.8
22:07 12.6 11.5 93 1014.9 12.1 SSE 13.6 0.0 3.8
22:08 12.6 11.5 93 1014.9 12.1 SSE 13.6 0.0 3.8
22:09 12.6 11.5 93 1014.9 12.1 SSE 13.6 0.0 3.8
22:10 12.6 11.5 93 1014.9 12.1 SSE 13.6 0.0 3.8
22:11 12.6 11.5 93 1014.9 12.1 SSE 13.6 0.0 3.8
22:12 12.6 11.5 93 1014.9 12.1 SSE 13.6 0.0 3.8
22:13 12.6 11.5 93 1014.9 12.1 SSE 13.6 0.0 3.8
22:14 12.6 11.5 93 1014.9 12.1 SSE 13.6 0.0 3.8
22:15 12.6 11.5 93 1014.9 12.1 SSE 13.6 0.0 3.8
22:16 12.6 11.5 93 1014.9 12.1 SSE 13.6 0.0 3.8
22:18 12.6 11.5 93 1014.9 12.1 SSE 13.6 0.0 3.8
22:19 12.6 11.5 93 1014.9 12.1 SSE 13.6 0.0 3.8
22:20 12.6 11.5 93 1014.9 12.1 SSE 13.6 0.0 3.8
22:21 12.6 11.5 93 1014.9 12.1 SSE 13.6 0.0 3.8
22:22 12.6 11.5 93 1014.9 12.1 SSE 13.6 0.0 3.8
22:23 12.6 11.5 93 1014.9 12.1 SSE 13.6 0.0 3.8
22:24 12.6 11.5 93 1014.9 12.1 SSE 13.6 0.0 3.8
22:25 12.6 11.5 93 1014.9 12.1 SSE 13.6 0.0 3.8
22:26 12.6 11.5 93 1014.9 12.1 SSE 13.6 0.0 3.8
22:27 12.6 11.5 93 1014.9 12.1 SSE 13.6 0.0 3.8
22:28 12.6 11.5 93 1014.9 12.1 SSE 13.6 0.0 3.8
22:29 12.6 11.5 93 1014.9 12.1 SSE 13.6 0.0 3.8
22:30 12.6 11.5 93 1014.9 12.1 SSE 13.6 0.0 3.8
22:31 12.6 11.5 93 1014.9 12.1 SSE 13.6 0.0 3.8
22:32 12.6 11.5 93 1014.9 12.1 SSE 13.6 0.0 3.8
22:33 12.6 11.5 93 1014.9 12.1 SSE 13.6 0.0 3.8
22:34 12.6 11.5 93 1014.9 12.1 SSE 13.6 0.0 3.8
22:36 12.6 11.5 93 1014.9 12.1 SSE 13.6 0.0 3.8
22:37 12.6 11.5 93 1014.9 12.1 SSE 13.6 0.0 3.8
22:38 12.6 11.5 93 1014.9 12.1 SSE 13.6 0.0 3.8
22:39 12.6 11.5 93 1014.9 12.1 SSE 13.6 0.0 3.8
22:40 12.6 11.5 93 1014.9 12.1 SSE 13.6 0.0 3.8
22:41 12.6 11.5 93 1014.9 12.1 SSE 13.6 0.0 3.8
22:42 12.6 11.5 93 1014.9 12.1 SSE 13.6 0.0 3.8
22:43 12.6 11.5 93 1014.9 12.1 SSE 13.6 0.0 3.8
22:44 12.6 11.5 93 1014.9 12.1 SSE 13.6 0.0 3.8
22:45 12.6 11.5 93 1014.9 12.1 SSE 13.6 0.0 3.8
22:46 12.6 11.5 93 1014.9 12.1 SSE 13.6 0.0 3.8
22:47 12.6 11.5 93 1014.9 12.1 SSE 13.6 0.0 3.8
22:48 12.6 11.5 93 1014.9 12.1 SSE 13.6 0.0 3.8
22:49 12.6 11.5 93 1014.9 12.1 SSE 13.6 0.0 3.8
22:50 12.6 11.5 93 1014.9 12.1 SSE 13.6 0.0 3.8
22:51 12.6 11.5 93 1014.9 12.1 SSE 13.6 0.0 3.8
22:52 12.6 11.5 93 1014.9 12.1 SSE 13.6 0.0 3.8
22:53 12.6 11.5 93 1014.9 12.1 SSE 13.6 0.0 3.8
22:55 12.6 11.5 93 1014.9 12.1 SSE 13.6 0.0 3.8
22:56 12.6 11.5 93 1014.9 12.1 SSE 13.6 0.0 3.8
22:57 12.6 11.5 93 1014.9 12.1 SSE 13.6 0.0 3.8
22:58 12.6 11.5 93 1014.9 12.1 SSE 13.6 0.0 3.8
22:59 12.6 11.5 93 1014.9 12.1 SSE 13.6 0.0 3.8
23:00 12.6 11.5 93 1014.9 12.1 SSE 13.6 0.0 3.8
23:01 12.6 11.5 93 1014.9 12.1 SSE 13.6 0.0 3.8
23:02 12.6 11.5 93 1014.9 12.1 SSE 13.6 0.0 3.8
23:03 12.6 11.5 93 1014.9 12.1 SSE 13.6 0.0 3.8
23:04 12.6 11.5 93 1014.9 12.1 SSE 13.6 0.0 3.8
23:05 12.6 11.5 93 1014.9 12.1 SSE 13.6 0.0 3.8
23:06 12.6 11.5 93 1014.9 12.1 SSE 13.6 0.0 3.8
23:07 12.6 11.5 93 1014.9 12.1 SSE 13.6 0.0 3.8
23:08 12.6 11.5 93 1014.9 12.1 SSE 13.6 0.0 3.8
23:09 12.6 11.5 93 1014.9 12.1 SSE 13.6 0.0 3.8
23:10 12.6 11.5 93 1014.9 12.1 SSE 13.6 0.0 3.8
23:11 12.6 11.5 93 1014.9 12.1 SSE 13.6 0.0 3.8
23:12 12.6 11.5 93 1014.9 12.1 SSE 13.6 0.0 3.8
23:14 12.6 11.5 93 1014.9 12.1 SSE 13.6 0.0 3.8
23:15 12.6 11.5 93 1014.9 12.1 SSE 13.6 0.0 3.8
23:16 12.6 11.5 93 1014.9 12.1 SSE 13.6 0.0 3.8
23:17 12.6 11.5 93 1014.9 12.1 SSE 13.6 0.0 3.8
23:18 12.6 11.5 93 1014.9 12.1 SSE 13.6 0.0 3.8
23:19 12.6 11.5 93 1014.9 12.1 SSE 13.6 0.0 3.8
23:21 12.6 11.5 93 1014.9 12.1 SSE 13.6 0.0 3.8
23:22 12.6 11.5 93 1014.9 12.1 SSE 13.6 0.0 3.8
23:24 12.6 11.5 93 1014.9 12.1 SSE 13.6 0.0 3.8
23:25 12.6 11.5 93 1014.9 12.1 SSE 13.6 0.0 3.8
23:26 12.6 11.5 93 1014.9 12.1 SSE 13.6 0.0 3.8
23:27 12.6 11.5 93 1014.9 12.1 SSE 13.6 0.0 3.8
23:28 12.6 11.5 93 1014.9 12.1 SSE 13.6 0.0 3.8
23:29 12.6 11.5 93 1014.9 12.1 SSE 13.6 0.0 3.8
23:30 12.6 11.5 93 1014.9 12.1 SSE 13.6 0.0 3.8
23:31 12.6 11.5 93 1014.9 12.1 SSE 13.6 0.0 3.8
23:32 12.6 11.5 93 1014.9 12.1 SSE 13.6 0.0 3.8
23:33 12.6 11.5 93 1014.9 12.1 SSE 13.6 0.0 3.8
23:34 12.6 11.5 93 1014.9 12.1 SSE 13.6 0.0 3.8
23:35 12.6 11.5 93 1014.9 12.1 SSE 13.6 0.0 3.8
23:36 12.6 11.5 93 1014.9 12.1 SSE 13.6 0.0 3.8
23:37 12.6 11.5 93 1014.9 12.1 SSE 13.6 0.0 3.8
23:38 12.6 11.5 93 1014.9 12.1 SSE 13.6 0.0 3.8
23:39 12.6 11.5 93 1014.9 12.1 SSE 13.6 0.0 3.8
23:40 12.6 11.5 93 1014.9 12.1 SSE 13.6 0.0 3.8
23:41 12.6 11.5 93 1014.9 12.1 SSE 13.6 0.0 3.8
23:42 12.6 11.5 93 1014.9 12.1 SSE 13.6 0.0 3.8
23:44 12.6 11.5 93 1014.9 12.1 SSE 13.6 0.0 3.8
23:45 12.6 11.5 93 1014.9 12.1 SSE 13.6 0.0 3.8
23:46 12.6 11.5 93 1014.9 12.1 SSE 13.6 0.0 3.8
23:47 12.6 11.5 93 1014.9 12.1 SSE 13.6 0.0 3.8
23:48 12.6 11.5 93 1014.9 12.1 SSE 13.6 0.0 3.8
23:49 12.6 11.5 93 1014.9 12.1 SSE 13.6 0.0 3.8
23:50 12.6 11.5 93 1014.9 12.1 SSE 13.6 0.0 3.8
23:51 12.6 11.5 93 1014.9 12.1 SSE 13.6 0.0 3.8
23:52 12.6 11.5 93 1014.9 12.1 SSE 13.6 0.0 3.8
23:53 12.6 11.5 93 1014.9 12.1 SSE 13.6 0.0 3.8
23:54 12.6 11.5 93 1014.9 12.1 SSE 13.6 0.0 3.8
23:55 12.6 11.5 93 1014.9 12.1 SSE 13.6 0.0 3.8
23:56 12.6 11.5 93 1014.9 12.1 SSE 13.6 0.0 3.8
23:57 12.6 11.5 93 1014.9 12.1 SSE 13.6 0.0 3.8
23:58 12.6 11.5 93 1014.9 12.1 SSE 13.6 0.0 3.8
23:59 12.6 11.5 93 1014.9 12.1 SSE 13.6 0.0 3.8

 

 

UK - WEATHER STATION TOPSITES - UK World Weather Websites

Copyright © Carnkie Weather 2009 - 2022.